     2.10           OBSERVATION DATA    G (GPS)             RINEX VERSION / TYPE
teqc 2002Mar14 Lou Estey 20020315 16:28:38UTC               PGM / RUN BY / DATE
Solaris 2.7|Ultra 2|cc SC5.0|=+-|*Sparc                     COMMENT
BIT 2 OF LLI FLAGS DATA COLLECTED UNDER A/S CONDITION       COMMENT
-Unknown-                                                   MARKER NAME
-Unknown- -Unknown-                                         OBSERVER / AGENCY
-Unknown- TI-4100 -Unknown-                                 REC # / TYPE / VERS
-Unknown- TI-4100                                           ANT # / TYPE
        0.0000        0.0000        0.0000                  APPROX POSITION XYZ
        0.0000        0.0000        0.0000                  ANTENNA: DELTA H/E/N
     1     1                                                WAVELENGTH FACT L1/2
     7    L1    L2    C1    P2    P1    D1    D2            # / TYPES OF OBSERV
SNR is mapped to RINEX snr flag value [1-9]                 COMMENT
L1 & L2: 30 dBHz = 1; 35 dBHz = 5; 43 dBHz = 9              COMMENT
  1989     5    21    22    29   29.0800000     GPS         TIME OF FIRST OBS
                                                            END OF HEADER
 89  5 21 22 29 29.0800000  0  4G 6G 8G 9G11
   4794218.643 9 -10114170.764 8  16846124.633    16846119.646
      1663.483        1282.972
   1498462.704 9  -3456377.054 9  17233325.993    17233321.199
      2203.052        1695.282
   1549805.421 6  -5657563.521 7  20041681.146    20041673.974
      3472.537        2713.615
   1419284.745 9  -5950039.595 7  19841205.843    19841195.931
      3628.827        2840.016
 89  5 21 22 29 59.0800000  0  4G 6G 8G 9G11
   4744740.787 9 -10152724.903 9  16836709.002    16836704.055
      1646.976        1288.789
   1433253.984 8  -3507188.969 8  17220916.126    17220912.021
      2162.486        1685.414
   1445542.653 6  -5738807.152 7  20021842.796    20021834.604
      3486.094        2709.769
   1310221.120 9  -6035024.127 9  19820450.375    19820442.138
      3634.377        2839.103
 89  5 21 22 30 29.0800000  0  4G 6G 8G 9G11
   4695606.962 9 -10191010.996 9  16827359.654    16827353.791
      1635.556        1273.024
   1368639.683 9  -3557537.731 9  17208621.702    17208616.320
      2141.928        1681.612
   1341320.556 8  -5820019.074 8  20002008.876    20002002.443
      3470.679        2708.346
   1201362.542 8  -6119848.894 9  19799735.804    19799726.896
      3631.091        2828.707
 89  5 21 22 30 59.0800000  0  4G 6G 8G 9G11
   4646819.198 9 -10229027.392 8  16818075.137    16818070.602
      1614.177        1274.248
   1304621.938 9  -3607421.627 8  17196438.728    17196433.898
      2116.291        1663.405
   1237141.205 9  -5901197.698 8  19982184.550    19982178.158
      3468.606        2701.766
   1092711.486 8  -6204511.942 8  19779060.212    19779050.845
      3607.599        2812.353
 89  5 21 22 31 29.0800000  0  4G 6G 8G 9G11
   4598379.743 8 -10266772.395 8  16808856.938    16808852.856
      1616.410        1263.983
   1241202.206 9  -3656839.483 9  17184369.850    17184365.512
      2107.487        1634.064
   1133006.135 8  -5982341.822 9  19962367.743    19962360.554
      3481.468        2703.698
    984270.536 8  -6289011.271 8  19758423.574    19758414.866
      3622.926        2818.914
 89  5 21 22 31 59.0800000  0  4G 6G 8G 9G11
   4550290.471 9 -10304244.520 8  16799706.053    16799702.058
      1596.458        1242.751
   1178382.404 9  -3705789.915 7  17172414.730    17172411.786
      2093.675        1626.427
   1028916.998 9  -6063450.124 9  19942560.732    19942553.552
      3481.819        2698.914
    876042.120 7  -6373344.967 7  19737828.439    19737819.158
      3591.331        2815.006
 89  5 21 22 32 29.0800000  0  4G 6G 8G 9G11
   4502553.593 9 -10341442.066 8  16790622.167    16790617.749
      1580.079        1230.354
   1116164.507 8  -3754271.346 7  17160575.732    17160570.944
      2062.296        1613.751
    924875.523 9  -6144521.331 8  19922761.893    19922755.089
      3465.400        2703.866
    768028.812 8  -6457511.067 8  19717273.820    19717264.681
      3592.719        2810.302
 89  5 21 22 32 59.0800000  0  4G 6G 8G 9G11
   4455170.999 9 -10378363.536 8  16781605.649    16781600.852
      1567.766        1220.114
   1054549.753 9  -3802282.785 8  17148852.090    17148846.234
      2034.394        1589.753
    820883.406 9  -6225554.057 9  19902972.624    19902965.826
      3474.595        2703.891
    660232.808 8  -6541507.814 9  19696760.986    19696752.608
      3594.585        2793.655
 89  5 21 22 33 29.0800000  0  4G 6G 8G 9G11
   4408144.825 9 -10415007.275 8  16772655.796    16772651.341
      1568.723        1227.869
    993540.184 9  -3849822.659 8  17137242.011    17137236.403
      2036.132        1573.330
    716942.220 9  -6306547.095 9  19883192.614    19883187.136
      3464.435        2710.558
    552656.848 8  -6625333.110 8  19676289.850    19676281.457
      3583.086        2790.436
 89  5 21 22 33 59.0800000  0  4G 6G 8G 9G11
   4361477.124 9 -10451371.690 9  16763775.538    16763772.149
      1541.132        1203.181
    933137.638 9  -3896889.518 8  17125746.814    17125741.880
      1994.060        1562.444
    613053.951 9  -6387498.901 8  19863423.881    19863416.978
      3463.096        2690.071
    445303.097 9  -6708985.257 9  19655861.273    19655853.824
      3577.113        2787.535
 89  5 21 22 34 29.0800000  0  4G 6G 8G 9G11
   4315170.144 9 -10487455.036 9  16754963.907    16754958.610
      1543.835        1197.222
    873343.859 9  -3943482.023 8  17114368.391    17114363.548
      1984.522        1559.411
    509220.313 9  -6468408.127 8  19843664.716    19843657.758
      3453.805        2697.404
    338173.845 8  -6792462.483 8  19635475.394    19635466.930
      3575.095        2776.636
 89  5 21 22 34 59.0800000  0  4G 6G 8G 9G11
   4269225.624 9 -10523255.922 9  16746220.278    16746217.328
      1519.322        1190.480
    814160.641 9  -3989598.767 8  17103106.690    17103101.369
      1945.847        1525.254
    405442.911 8  -6549273.543 8  19823916.270    19823910.388
      3462.928        2683.342
    231271.557 9  -6875762.844 9  19615132.048    19615123.814
      3566.228        2775.747
 89  5 21 22 35 29.0800000  0  4G 6G 8G 9G11
   4223645.681 9 -10558772.752 8  16737546.860    16737542.808
      1530.151        1192.121
    755589.750 9  -4035238.362 7  17091960.957    17091956.608
      1943.351        1513.187
    301723.423 8  -6630093.820 8  19804178.672    19804172.804
      3454.699        2699.013
    124598.598 9  -6958884.519 8  19594832.283    19594823.705
      3551.045        2760.871
 89  5 21 22 35 59.0800000  0  4G 6G 8G 9G11
   4178432.344 9 -10594003.905 9  16728943.651    16728939.446
      1496.252        1173.417
    697632.535 9  -4080399.764 8  17080929.711    17080926.820
      1921.908        1491.016
    198063.618 8  -6710867.623 9  19784453.314    19784446.686
      3461.453        2689.537
     18157.335 9  -7041825.632 8  19574577.340    19574569.560
      3537.058        2773.777
 89  5 21 22 36 29.0800000  0  4G 6G 8G 9G11
   4133587.445 9 -10628947.968 8  16720409.511    16720404.546
      1477.664        1177.773
    640289.900 9  -4125082.296 7  17070018.193    17070015.027
      1919.587        1486.058
     94465.067 8  -6791593.671 9  19764739.915    19764733.088
      3442.490        2689.680
    -88049.780 9  -7124584.318 8  19554366.233    19554358.983
      3524.689        2750.022
 89  5 21 22 36 59.0800000  0  4G 6G 8G 9G11
   4089113.278 9 -10663603.135 8  16711945.996    16711941.898
      1467.146        1162.512
    583563.914 9  -4169284.313 7  17059224.137    17059220.073
      1880.943        1467.180
     -9070.218 7  -6872270.419 7  19745036.220    19745029.678
      3461.501        2692.122
   -194020.559 9  -7207158.842 8  19534199.697    19534192.976
      3537.010        2761.654
 89  5 21 22 37 29.0800000  0  4G 6G 8G 9G11
   4045011.868 9 -10697967.866 8  16703554.842    16703550.452
      1457.553        1139.074
    527456.108 8  -4213004.632 7  17048546.903    17048543.356
      1840.657        1443.984
   -112540.400 7  -6952896.451 8  19725346.441    19725338.498
      3464.706        2681.509
   -299752.688 8  -7289547.403 8  19514081.634    19514072.930
      3525.216        2721.880
 89  5 21 22 37 59.0800000  0  4G 6G 8G 9G11
   4001285.120 9 -10732040.634 8  16695232.466    16695230.169
      1457.960        1125.248
    471968.074 9  -4256242.013 7  17037988.062    17037984.884
      1832.483        1439.777
   -215944.060 7  -7033470.618 8  19705669.797    19705663.167
      3456.158        2672.778
   -405243.774 8  -7371748.147 8  19494006.822    19493998.326
      3499.722        2741.801
 89  5 21 22 38 29.0800000  0  4G 6G 8G 9G11
   3957935.116 9 -10765819.842 9  16686984.154    16686979.244
      1440.480        1118.425
    417101.362 9  -4298995.263 8  17027548.207    17027543.594
      1816.925        1430.214
   -319279.188 7  -7113991.405 7  19686005.076    19685997.800
      3448.534        2679.210
   -510491.487 9  -7453759.220 8  19473977.743    19473970.251
      3529.147        2749.115
 89  5 21 22 38 59.0800000  0  4G 6G 8G 9G11
   3914963.762 9 -10799303.993 8  16678806.047    16678802.531
      1425.520        1109.627
    362857.216 9  -4341263.383 7  17017224.887    17017221.503
      1811.909        1403.489
   -422544.051 7  -7194457.379 8  19666354.763    19666350.826
      3458.510        2701.791
   -615493.439 8  -7535578.826 8  19453996.765    19453988.874
      3506.133        2718.972
 89  5 21 22 39 29.0800000  0  4G 6G 8G 9G11
   3872373.381 9 -10832491.300 8  16670701.340    16670697.872
      1418.518        1117.779
    309237.308 9  -4383045.087 7  17007020.851    17007017.691
      1775.722        1394.417
   -525736.574 8  -7274867.052 6  19646716.136    19646711.430
      3433.136        2687.605
   -720247.151 8  -7617204.984 8  19434063.414    19434055.321
      3482.792        2717.934
 89  5 21 22 39 59.0800000  0  4G 6G 8G 9G11
   3830165.975 9 -10865380.160 7  16662671.379    16662665.658
      1401.397        1094.017
    256242.755 8  -4424339.505 8  16996938.170    16996933.489
      1744.542        1352.293
   -628854.894 8  -7355218.941 8  19627095.716    19627089.564
      3432.857        2674.512
   -824750.429 8  -7698635.975 8  19414175.821    19414168.973
      3472.784        2705.506
 89  5 21 22 40 29.0800000  0  4G 6G 8G 9G11
   3788343.821 9 -10897968.818 8  16654712.051    16654707.088
      1385.369        1100.399
    203875.463 9  -4465145.129 7  16986971.356    16986968.138
      1726.169        1347.204
   -731896.891 9  -7435511.305 8  19607487.066    19607480.473
      3447.825        2674.382
   -929000.274 8  -7779869.501 9  19394339.148    19394330.327
      3487.385        2709.353
 89  5 21 22 40 59.0800000  0  4G 6G 8G 9G11
   3746908.829 9 -10930255.814 9  16646827.736    16646822.986
      1373.272        1078.477
    152136.419 9  -4505461.245 8  16977127.130    16977121.982
      1716.249        1334.124
   -834861.081 9  -7515743.060 7  19587892.850    19587887.782
      3428.104        2663.452
  -1032994.746 9  -7860904.045 8  19374549.687    19374540.879
      3462.681        2686.989
 89  5 21 22 41 29.0800000  0  4G 6G 8G 9G11
   3705862.883 9 -10962239.633 8  16639015.316    16639012.056
      1362.299        1076.016
    101027.061 9  -4545286.689 8  16967401.109    16967396.361
      1691.489        1324.791
   -937745.589 8  -7595912.723 7  19568314.405    19568309.313
      3431.653        2658.307
  -1136731.639 9  -7941737.872 7  19354808.865    19354799.742
      3468.454        2706.476
 89  5 21 22 41 59.0800000  0  4G 6G 8G 9G11
   3665208.050 9 -10993918.702 9  16631280.337    16631275.492
      1350.194        1044.289
     50548.835 9  -4584620.339 8  16957796.077    16957791.007
      1661.481        1307.560
  -1040548.134 9  -7676018.526 7  19548751.000    19548746.630
      3432.330        2664.638
  -1240208.590 8  -8022369.161 8  19335116.710    19335109.449
      3466.828        2684.808
 89  5 21 22 42 29.0800000  0  4G 6G 8G 9G11
   3624946.611 9 -11025291.230 8  16623619.126    16623613.575
      1351.311        1030.649
       702.938 8  -4623461.288 8  16948309.757    16948304.876
      1648.284        1297.401
  -1143267.100 9  -7756059.222 8  19529206.290    19529198.814
      3447.314        2662.961
  -1343423.424 9  -8102796.194 9  19315475.849    19315468.370
      3435.520        2687.810
 89  5 21 22 42 59.0800000  0  4G 6G 8G 9G11
   3585080.493 8 -11056355.707 9  16616032.040    16616028.452
      1318.600        1036.080
    -48509.196 9  -4661808.359 7  16938944.308    16938940.731
      1634.480        1272.782
  -1245900.349 9  -7836033.114 8  19509674.724    19509668.859
      3421.477        2652.105
  -1446373.540 8  -8183016.964 8  19295884.752    19295876.859
      3424.380        2675.314
 89  5 21 22 43 29.0800000  0  4G 6G 8G 9G11
   3545611.914 9 -11087110.438 8  16608522.638    16608517.378
      1307.141        1013.940
    -97086.527 8  -4699660.817 7  16929700.173    16929696.372
      1623.746        1249.300
  -1348445.963 9  -7915938.713 9  19490162.531    19490155.422
      3420.217        2649.253
  -1549056.451 9  -8263029.522 8  19276344.766    19276337.518
      3420.975        2664.788
 89  5 21 22 43 59.0800000  0  4G 6G 8G 9G11
   3506544.225 9 -11117552.773 9  16601087.435    16601083.018
      1301.088        1012.667
   -145026.375 9  -4737016.538 8  16920579.348    16920574.185
      1579.776        1239.327
  -1450900.633 9  -7995773.448 8  19470664.547    19470658.426
      3411.214        2659.437
  -1651468.417 9  -8342830.955 8  19256855.928    19256849.009
      3417.036        2658.288
 89  5 21 22 44 29.0800000  0  4G 6G 8G 9G11
   3467878.700 9 -11147681.734 8  16593728.970    16593725.478
      1296.399         991.583
   -192328.231 9  -4773875.098 8  16911577.666    16911573.220
      1563.819        1214.689
  -1553262.973 9  -8075536.237 8  19451185.571    19451179.493
      3416.645        2661.302
  -1753608.075 8  -8422420.193 8  19237419.544    19237412.869
      3411.422        2649.601
 89  5 21 22 44 59.0800000  0  4G 6G 8G 9G11
   3429615.298 9 -11177497.359 9  16586449.155    16586444.402
      1272.580         987.165
   -238992.994 9  -4810237.232 8  16902696.888    16902693.359
      1534.601        1181.918
  -1655533.342 9  -8155227.359 8  19431724.859    19431716.318
      3404.492        2665.626
  -1855475.256 8  -8501797.114 7  19218034.278    19218028.316
      3383.089        2644.562
 89  5 21 22 45 29.0800000  0  4G 6G 8G 9G11
   3391757.973 9 -11206996.547 8  16579245.305    16579240.780
      1245.770         970.494
   -285017.349 9  -4846100.328 7  16893938.767    16893933.509
      1514.131        1192.723
  -1757707.655 8  -8234843.622 9  19412281.216    19412275.465
      3411.860        2656.393
  -1957065.504 8  -8580958.252 8  19198702.931    19198695.797
      3389.763        2640.852
 89  5 21 22 45 59.0800000  0  4G 6G 8G 9G11
   3354308.078 9 -11236178.264 8  16572118.281    16572113.114
      1251.073         963.379
   -330401.506 9  -4881464.582 7  16885303.558    16885298.065
      1476.077        1169.670
  -1859784.723 8  -8314384.111 9  19392855.794    19392850.336
      3404.053        2628.039
  -2058377.624 9  -8659902.663 8  19179423.689    19179416.269
      3375.673        2622.683
 89  5 21 22 46 29.0800000  0  4G 6G 8G 9G11
   3317268.094 9 -11265040.566 9  16565069.207    16565065.779
      1238.282         951.846
   -375143.855 9  -4916328.710 7  16876787.064    16876784.493
      1468.757        1160.312
  -1961761.827 9  -8393846.708 9  19373450.528    19373445.362
      3417.666        2647.047
  -2159408.607 8  -8738627.985 8  19160197.229    19160190.299
      3388.639        2610.746
 89  5 21 22 46 59.0800000  0  4G 6G 8G 9G11
   3280640.336 9 -11293581.659 9  16558099.275    16558095.535
      1200.779         952.946
   -419242.963 9  -4950691.623 7  16868397.125    16868391.099
      1462.513        1129.448
  -2063636.841 9  -8473229.744 9  19354063.648    19354057.578
      3413.072        2652.428
  -2260156.285 9  -8817132.584 8  19141026.182    19141017.703
      3357.507        2625.106
 89  5 21 22 47 29.0800000  0  4G 6G 8G 9G11
   3244426.108 9 -11321800.526 9  16551207.378    16551204.019
      1192.166         933.360
   -462698.305 9  -4984552.900 9  16860127.681    16860123.069
      1447.075        1127.951
  -2165408.372 8  -8552532.171 9  19334697.507    19334692.089
      3376.159        2643.145
  -2360618.857 8  -8895415.041 8  19121908.694    19121902.419
      3351.494        2609.640
 89  5 21 22 47 59.0800000  0  4G 6G 8G 9G11
   3208627.626 8 -11349695.438 9  16544395.645    16544390.331
      1184.024         933.764
   -505508.850 9  -5017911.739 6  16851980.777    16851976.294
      1410.400        1122.769
  -2267074.330 9  -8631752.340 8  19315350.163    19315345.245
      3401.581        2638.541
  -2460793.787 8  -8973473.327 8  19102846.306    19102839.816
      3326.391        2593.901
 89  5 21 22 48 29.0800000  0  4G 6G 8G 9G11
   3173246.822 9 -11377264.869 8  16537662.889    16537658.458
      1172.765         908.406
   -547673.486 9  -5050767.294 9  16843957.673    16843953.551
      1409.699        1077.284
  -2368632.451 9  -8710888.449 9  19296025.243    19296019.707
      3387.562        2652.099
  -2560679.075 8  -9051305.928 8  19083838.781    19083832.019
      3322.077        2586.469
 89  5 21 22 48 59.0800000  0  4G 6G 8G 9G11
   3138285.378 9 -11404507.542 8  16531009.230    16531005.854
      1149.192         914.626
   -589191.833 8  -5083119.226 8  16836057.448    16836051.675
      1371.510        1083.280
  -2470081.336 9  -8789939.464 8  19276720.075    19276713.890
      3383.623        2630.432
  -2660272.670 9  -9128911.223 9  19064886.661    19064878.870
      3315.562        2577.732
 89  5 21 22 49 29.0800000  0  4G 6G 8G 9G11
   3103745.365 9 -11431421.817 8  16524437.698    16524433.303
      1151.760         887.030
   -630062.534 8  -5114966.491 8  16828278.104    16828274.361
      1357.594        1064.042
  -2571418.638 9  -8868903.493 8  19257435.597    19257429.473
      3388.025        2637.043
  -2759572.186 9  -9206287.376 8  19045990.689    19045982.970
      3311.351        2567.268
 89  5 21 22 49 59.0800000  0  4G 6G 8G 9G11
   3069628.894 9 -11458006.050 9  16517944.654    16517940.895
      1137.414         882.419
   -670285.090 9  -5146308.701 8  16820624.257    16820619.767
      1338.241        1029.139
  -2672642.078 9  -8947778.806 8  19238173.999    19238168.207
      3376.446        2632.370
  -2858575.598 8  -9283432.770 9  19027150.701    19027143.284
      3297.683        2559.762
 89  5 21 22 50 29.0800000  0  4G 6G 8G 9G11
   3035938.074 9 -11484258.611 9  16511533.192    16511529.721
      1131.226         865.847
   -709858.394 8  -5177145.007 8  16813093.971    16813089.028
      1320.872        1010.958
  -2773749.480 8  -9026563.723 7  19218933.489    19218927.578
      3368.623        2631.587
  -2957280.274 9  -9360345.403 8  19008366.461    19008360.514
      3288.058        2571.245
 89  5 21 22 50 59.0800000  0  4G 6G 8G 9G11
   3002674.784 8 -11510178.044 9  16505203.769    16505199.228
      1083.978         856.346
   -748781.788 8  -5207474.877 8  16805688.048    16805683.209
      1290.227        1017.389
  -2874738.945 8  -9105256.720 8  19199715.906    19199709.522
      3362.332        2628.008
  -3055684.266 9  -9437023.739 9  18989642.490    18989635.167
      3258.099        2560.340
 89  5 21 22 51 29.0800000  0  4G 6G 8G 9G11
   2969841.111 8 -11535762.702 8  16498954.800    16498951.411
      1091.881         858.776
   -787054.447 9  -5237297.709 7  16798404.072    16798399.536
      1268.329         989.551
  -2975608.425 8  -9183856.221 8  19180521.041    19180515.558
      3354.876        2609.143
  -3153785.228 9  -9513465.922 9  18970973.696    18970967.035
      3258.051        2538.610
 89  5 21 22 51 59.0800000  0  4G 6G 8G 9G11
   2937438.684 9 -11561011.329 9  16492789.346    16492785.973
      1077.264         841.384
   -824675.873 8  -5266613.062 8  16791245.485    16791240.420
      1266.224         966.548
  -3076355.747 8  -9262360.540 8  19161349.639    19161342.243
      3373.695        2614.617
  -3251581.246 9  -9589670.511 8  18952363.404    18952356.641
      3254.702        2547.055
 89  5 21 22 52 29.0800000  0  4G 6G 8G 9G11
   2905469.635 9 -11585922.262 8  16486706.285    16486702.583
      1056.778         815.802
   -861645.063 9  -5295420.211 7  16784209.884    16784205.073
      1220.938         953.120
  -3176978.934 8  -9340768.124 8  19142201.654    19142195.911
      3353.225        2618.016
  -3349070.038 9  -9665635.699 8  18933811.801    18933804.713
      3249.622        2517.080
 89  5 21 22 52 59.0800000  0  4G 6G 8G 9G11
   2873935.820 9 -11610494.051 8  16480705.678    16480700.967
      1051.515         812.229
   -897961.577 9  -5323718.780 7  16777299.214    16777294.863
      1196.385         953.859
  -3277475.696 8  -9419077.177 7  19123077.375    19123071.744
      3353.233        2614.959
  -3446249.485 9  -9741359.842 9  18915319.016    18915312.155
      3242.724        2517.533
 89  5 21 22 53 29.0800000  0  4G 6G 8G 9G11
   2842839.053 9 -11634725.270 9  16474787.052    16474784.209
      1033.724         800.317
   -933624.853 9  -5351508.287 8  16770512.141    16770508.837
      1177.478         919.317
  -3377843.933 9  -9497286.086 8  19103977.286    19103972.270
      3357.890        2606.701
  -3543117.667 9  -9816841.446 9  18896886.132    18896878.284
      3224.096        2505.858
 89  5 21 22 53 59.0800000  0  4G 6G 8G 9G11
   2812181.211 9 -11658614.488 8  16468954.687    16468949.191
      1022.352         784.745
   -968634.354 9  -5378788.411 8  16763850.571    16763846.208
      1156.242         922.057
  -3478081.953 8  -9575393.568 9  19084902.773    19084897.738
      3317.619        2597.505
  -3639672.598 9  -9892078.972 9  18878512.625    18878504.904
      3221.361        2503.459
 89  5 21 22 54 29.0800000  0  4G 6G 8G 9G11
   2781964.683 9 -11682159.809 9  16463203.780    16463199.214
      1000.176         769.484
  -1002989.301 9  -5405558.469 8  16757313.127    16757309.017
      1132.311         885.110
  -3578186.707 9  -9653397.185 9  19065852.638    19065847.112
      3343.943        2600.643
  -3735911.593 9  -9967070.307 8  18860199.741    18860191.589
      3196.082        2500.874
 89  5 21 22 54 59.0800000  0  4G 6G 8G 9G11
   2752191.416 9 -11705359.751 8  16457538.498    16457533.815
       989.075         766.824
  -1036688.934 8  -5431817.899 9  16750899.971    16750896.045
      1095.820         868.078
  -3678156.304 9  -9731295.519 8  19046830.295    19046824.562
      3333.959        2600.705
  -3831832.713 9 -10041813.952 8  18841944.314    18841937.552
      3186.983        2476.814
 89  5 21 22 55 29.0800000  0  4G 6G 8G 9G11
   2722863.095 8 -11728212.963 8  16451956.346    16451953.052
       979.905         758.442
  -1069732.782 9  -5457566.313 8  16744612.059    16744607.801
      1096.450         861.237
  -3777988.483 9  -9809086.752 8  19027832.653    19027827.471
      3324.605        2598.692
  -3927433.862 9 -10116308.268 7  18823752.746    18823746.357
      3171.099        2468.221
 89  5 21 22 55 59.0800000  0  4G 6G 8G 9G11
   2693981.503 9 -11750718.082 8  16446461.435    16446457.458
       948.829         753.167
  -1102120.202 9  -5482803.258 7  16738448.362    16738444.730
      1065.534         840.632
  -3877681.336 9  -9886769.399 7  19008861.343    19008855.951
      3319.964        2599.524
  -4022712.937 8 -10190551.618 8  18805620.242    18805613.225
      3187.302        2461.410
 89  5 21 22 56 29.0800000  0  4G 6G 8G 9G11
   2665548.735 9 -11772873.475 8  16441049.881    16441045.966
       940.894         725.229
  -1133850.882 9  -5507528.418 7  16732410.327    16732406.644
      1065.621         793.761
  -3977232.601 9  -9964341.725 8  18989916.756    18989910.701
      3321.957        2569.872
  -4117667.974 9 -10264542.470 8  18787551.271    18787545.367
      3164.910        2458.900
 89  5 21 22 56 59.0800000  0  4G 6G 8G 9G11
   2637566.764 8 -11794677.586 9  16435726.031    16435721.920
       921.222         724.975
  -1164924.070 8  -5531741.257 8  16726496.678    16726493.447
      1037.145         794.700
  -4076639.762 9 -10041801.757 8  18970999.963    18970995.237
      3304.119        2580.901
  -4212296.640 9 -10338278.996 8  18769544.377    18769537.774
      3158.778        2450.076
 89  5 21 22 57 29.0800000  0  4G 6G 8G 9G11
   2610037.447 9 -11816128.986 8  16430487.226    16430483.136
       900.241         710.956
  -1195339.442 8  -5555441.524 7  16720709.088    16720705.625
      1000.726         780.917
  -4175900.965 9 -10119148.080 8  18952111.941    18952105.795
      3302.388        2563.820
  -4306596.951 9 -10411759.684 8  18751599.275    18751593.453
      3125.294        2464.157
 89  5 21 22 57 59.0800000  0  4G 6G 8G 9G11
   2582962.834 8 -11837226.084 9  16425334.960    16425330.822
       905.161         703.618
  -1225096.544 9  -5578628.842 8  16715046.392    16715043.792
       979.076         761.505
  -4275013.120 8 -10196378.214 8  18933250.867    18933246.185
      3310.945        2572.923
  -4400566.593 8 -10484982.702 8  18733718.045    18733711.251
      3110.382        2444.341
 89  5 21 22 58 29.0800000  0  4G 6G 8G 9G11
   2556344.552 9 -11857967.587 8  16420269.540    16420265.963
       875.225         695.496
  -1254194.933 8  -5601302.897 9  16709508.960    16709504.966
       965.703         762.779
  -4373975.041 8 -10273491.309 8  18914420.136    18914413.044
      3278.968        2571.923
  -4494203.985 9 -10557946.820 8  18715899.143    18715892.865
      3096.602        2428.347
 89  5 21 22 58 59.0800000  0  4G 6G 8G 9G11
   2530185.244 9 -11878351.438 8  16415291.558    16415287.706
       867.945         676.010
  -1282633.667 9  -5623462.938 7  16704098.559    16704093.208
       945.320         746.114
  -4472783.198 7 -10350484.574 8  18895616.295    18895612.127
      3298.385        2551.529
  -4587506.080 9 -10630649.661 8  18698144.443    18698137.552
      3091.084        2416.988
 89  5 21 22 59 29.0800000  0  4G 6G 8G 9G11
   2504486.201 9 -11898376.658 8  16410401.316    16410397.020
       854.707         666.615
  -1310412.873 9  -5645109.058 7  16698810.880    16698807.010
       913.630         706.284
  -4571435.608 9 -10427356.483 8  18876843.248    18876837.775
      3278.569        2557.637
  -4680471.370 9 -10703090.060 8  18680453.040    18680446.007
      3092.838        2403.827
 89  5 21 22 59 59.0800000  0  4G 6G 8G 9G11
   2479249.156 9 -11918041.886 8  16405598.879    16405594.099
       834.492         637.348
  -1337532.822 9  -5666241.452 8  16693649.964    16693646.657
       880.536         699.430
  -4669930.628 9 -10504105.741 8  18858100.691    18858096.281
      3292.947        2558.563
  -4773097.923 9 -10775266.508 8  18662827.292    18662819.874
      3095.167        2394.090
 89  5 21 23  0 29.0800000  0  4G 6G 8G 9G11
   2454476.300 9 -11937345.388 8  16400885.690    16400881.140
       821.215         623.926
  -1363992.743 8  -5686859.555 7  16688615.041    16688610.761
       881.302         677.526
  -4768265.410 9 -10580730.164 9  18839387.548    18839382.027
      3281.488        2566.572
  -4865383.724 8 -10847177.419 8  18645265.650    18645259.430
      3058.859        2398.931
 89  5 21 23  0 59.0800000  0  4G 6G 8G 9G11
   2430169.137 9 -11956286.019 8  16396258.430    16396255.746
       810.928         616.805
  -1389792.592 9  -5706963.299 7  16683705.704    16683702.425
       843.647         690.675
  -4866438.113 9 -10657228.279 8  18820706.283    18820702.135
      3256.344        2548.925
  -4957326.851 8 -10918821.314 8  18627769.371    18627762.751
      3036.125        2373.361
 89  5 21 23  1 29.0800000  0  4G 6G 8G 9G11
   2406329.463 9 -11974862.383 8  16391722.118    16391718.316
       790.825         619.906
  -1414932.388 8  -5726552.703 7  16678921.253    16678918.009
       839.819         653.268
  -4964446.556 8 -10733598.422 8  18802056.581    18802050.405
      3272.572        2538.349
  -5048925.455 9 -10990196.770 8  18610338.629    18610331.037
      3043.429        2369.521
 89  5 21 23  1 59.0800000  0  4G 6G 8G 9G11
   2382959.090 9 -11993073.054 9  16387275.206    16387271.468
       770.698         599.754
  -1439411.844 8  -5745627.572 7  16674263.563    16674260.239
       802.707         618.576
  -5062287.973 9 -10809838.415 9  18783437.269    18783432.477
      3260.196        2527.488
  -5140177.649 9 -11061302.281 8  18592973.774    18592968.240
      3022.153        2369.074
 89  5 21 23  2 29.0800000  0  4G 6G 8G 9G11
   2360059.870 9 -12010916.592 7  16382916.890    16382914.301
       753.497         608.839
  -1463230.725 8  -5764187.727 7  16669731.161    16669727.513
       778.026         593.174
  -5159960.230 8 -10885946.600 8  18764851.395    18764843.757
      3252.365        2536.293
  -5231081.073 9 -11132136.025 9  18575674.426    18575669.110
      3033.605        2359.914
 89  5 21 23  2 59.0800000  0  4G 6G 8G 9G11
   2337633.683 9 -12028391.519 8  16378650.388    16378645.536
       740.092         564.454
  -1486389.577 9  -5782233.573 7  16665323.696    16665320.252
       765.634         591.900
  -5257461.326 9 -10961921.401 8  18746297.154    18746291.166
      3249.813        2534.199
  -5321633.943 9 -11202696.626 8  18558443.211    18558436.907
      3014.490        2344.709
 89  5 21 23  3 29.0800000  0  4G 6G 8G 9G11
   2315682.176 8 -12045496.573 8  16374473.391    16374469.262
       726.081         558.644
  -1508887.631 9  -5799764.499 7  16661042.800    16661039.135
       743.649         569.618
  -5354788.359 9 -11037760.591 8  18727775.164    18727769.707
      3246.368        2537.094
  -5411834.379 9 -11272982.591 8  18541278.735    18541273.232
      3005.224        2337.352
 89  5 21 23  3 59.0800000  0  4G 6G 8G 9G11
   2294207.127 8 -12062230.363 8  16370385.538    16370380.654
       707.357         564.827
  -1530725.165 8  -5816780.757 7  16656887.763    16656883.822
       699.830         560.166
  -5451938.940 8 -11113462.278 8  18709289.390    18709283.219
      3240.029        2529.091
  -5501680.786 9 -11342992.692 9  18524180.635    18524175.963
      2997.250        2328.976
 89  5 21 23  4 29.0800000  0  4G 6G 8G 9G11
   2273210.327 9 -12078591.509 8  16366390.365    16366385.858
       676.600         551.194
  -1551901.968 9  -5833282.145 7  16652857.527    16652854.072
       687.230         550.050
  -5548911.305 8 -11189025.085 8  18690835.279    18690828.984
      3251.281        2516.210
  -5591170.904 9 -11412725.173 8  18507151.912    18507146.307
      2980.798        2338.887
 89  5 21 23  4 59.0800000  0  4G 6G 8G 9G11
   2252693.852 9 -12094578.350 7  16362486.317    16362482.938
       682.677         519.851
  -1572417.694 9  -5849268.407 7  16648954.024    16648950.482
       688.538         523.549
  -5645702.375 9 -11264446.633 7  18672415.946    18672411.261
      3206.672        2513.991
  -5680302.511 9 -11482178.307 8  18490191.229    18490185.439
      2961.971        2309.782
 89  5 21 23  5 29.0800000  0  4G 6G 8G 9G11
   2232659.021 9 -12110189.895 8  16358672.662    16358669.453
       660.341         514.439
  -1592272.707 9  -5864739.841 7  16645175.238    16645171.191
       655.101         498.190
  -5742310.212 9 -11339725.392 8  18654034.349    18654027.143
      3226.999        2504.453
  -5769073.781 9 -11551350.651 8  18473297.694    18473292.018
      2951.732        2309.844
 89  5 21 23  5 59.0800000  0  4G 6G 8G 9G11
   2213107.743 9 -12125424.655 8  16354954.283    16354950.008
       650.660         512.016
  -1611467.141 8  -5879696.516 7  16641521.098    16641519.254
       610.923         483.917
  -5838732.454 9 -11414859.537 8  18635685.282    18635679.908
      3201.218        2497.494
  -5857483.093 9 -11620240.946 9  18456475.242    18456468.596
      2936.644        2278.209
 89  5 21 23  6 29.0800000  0  4G 6G 8G 9G11
   2194041.807 8 -12140281.210 8  16351325.242    16351321.174
       614.440         491.318
  -1630000.870 9  -5894138.371 7  16637996.346    16637991.546
       609.265         469.060
  -5934966.259 8 -11489846.840 8  18617371.862    18617366.702
      3202.924        2482.283
  -5945528.339 9 -11688847.555 8  18439720.110    18439713.509
      2941.828        2272.698
 89  5 21 23  6 59.0800000  0  4G 6G 8G 9G11
   2175462.816 9 -12154758.330 8  16347789.723    16347785.076
       611.673         471.906
  -1647874.111 8  -5908065.548 7  16634593.020    16634590.214
       571.203         456.334
  -6031009.239 9 -11564685.471 8  18599095.928    18599089.843
      3213.522        2496.493
  -6033207.727 9 -11757169.072 7  18423033.516    18423028.228
      2927.649        2285.107
 89  5 21 23  7 29.0800000  0  4G 6G 8G 9G11
   2157372.597 9 -12168854.599 6  16344347.578    16344343.373
       593.563         482.699
  -1665087.282 9  -5921478.390 7  16631319.110    16631315.176
       571.355         442.819
  -6126859.500 9 -11639373.917 7  18580854.003    18580850.237
      3189.376        2506.255
  -6120519.507 9 -11825204.144 8  18406419.755    18406413.180
      2911.007        2264.141
 89  5 21 23  7 59.0800000  0  4G 6G 8G 9G11
   2139772.943 8 -12182568.622 8  16340999.627    16340993.562
       569.544         453.712
  -1681640.425 9  -5934376.922 8  16628168.223    16628164.970
       545.996         409.569
  -6222513.916 9 -11713909.730 8  18562653.580    18562647.395
      3193.809        2481.450
  -6207461.492 8 -11892951.071 7  18389875.478    18389868.558
      2889.293        2255.827
 89  5 21 23  8 29.0800000  0  4G 6G 8G 9G11
   2122665.395 9 -12195899.144 8  16337741.566    16337738.505
       551.323         442.993
  -1697533.689 9  -5946761.273 8  16625144.585    16625140.912
       516.005         398.788
  -6317970.574 9 -11788291.444 8  18544486.736    18544483.397
      3191.951        2476.864
  -6294032.158 9 -11960408.645 8  18373401.357    18373395.612
      2889.731        2246.699
 89  5 21 23  8 59.0800000  0  4G 6G 8G 9G11
   2106051.203 9 -12208845.255 9  16334581.267    16334577.051
       539.792         423.345
  -1712767.720 8  -5958631.950 7  16622246.002    16622241.940
       508.293         384.062
  -6413227.212 8 -11862517.324 8  18526361.418    18526356.456
      3174.966        2472.968
  -6380230.041 9 -12027575.744 7  18356999.142    18356992.635
      2864.732        2240.815
 89  5 21 23  9 29.0800000  0  4G 6G 8G 9G11
   2089932.655 8 -12221405.165 8  16331514.108    16331510.991
       516.563         412.229
  -1727342.179 9  -5969988.646 7  16619472.099    16619468.964
       477.162         362.450
  -6508280.697 9 -11936584.897 8  18508272.897    18508266.181
      3163.268        2471.558
  -6466052.454 8 -12094450.280 8  18340666.387    18340660.198
      2856.981        2219.396
 89  5 21 23  9 59.0800000  0  4G 6G 8G 9G11
   2074311.049 8 -12233577.843 7  16328541.844    16328536.955
       519.872         397.173
  -1741257.879 9  -5980832.048 7  16616823.905    16616820.336
       469.012         360.288
  -6603129.057 9 -12010492.622 8  18490224.427    18490218.135
      3164.225        2465.797
  -6551498.222 9 -12161031.305 8  18324406.616    18324400.644
      2857.754        2214.754
 89  5 21 23 10 29.0800000  0  4G 6G 8G 9G11
   2059188.247 9 -12245361.824 8  16325663.293    16325659.299
       503.684         384.105
  -1754514.858 9  -5991162.146 7  16614301.604    16614297.754
       427.888         351.731
  -6697769.668 8 -12084238.488 7  18472214.165    18472208.313
      3151.234        2452.233
  -6636565.655 8 -12227317.545 8  18308219.307    18308213.088
      2841.215        2216.208
 89  5 21 23 10 59.0800000  0  4G 6G 8G 9G11
   2044565.827 9 -12256755.911 8  16322880.667    16322876.440
       485.351         395.582
  -1767113.417 7  -6000979.181 7  16611904.218    16611901.068
       417.792         318.034
  -6792199.837 9 -12157820.364 8  18454244.376    18454239.435
      3154.536        2439.699
  -6721252.418 9 -12293307.142 8  18292103.572    18292097.882
      2821.957        2207.217
 89  5 21 23 11 29.0800000  0  4G 6G 8G 9G11
   2030445.365 9 -12267758.857 8  16320194.125    16320190.387
       463.398         367.353
  -1779054.088 9  -6010283.593 7  16609631.845    16609627.809
       378.894         295.894
  -6886417.386 9 -12231236.581 8  18436315.280    18436310.385
      3136.203        2452.699
  -6805556.983 9 -12358998.932 8  18276060.756    18276055.898
      2806.383        2185.761
 89  5 21 23 11 59.0800000  0  4G 6G 8G 9G11
   2016828.232 9 -12278369.596 7  16317603.154    16317600.069
       463.581         347.574
  -1790337.465 8  -6019075.829 7  16607485.180    16607481.842
       360.840         301.965
  -6980419.768 9 -12304485.134 8  18418427.439    18418421.215
      3121.020        2456.862
  -6889477.865 9 -12424391.770 9  18260091.434    18260085.531
      2793.832        2179.491
 89  5 21 23 12 29.0800000  0  4G 6G 8G 9G11
   2003716.485 8 -12288586.523 8  16315107.401    16315102.974
       419.204         344.150
  -1800963.730 9  -6027356.033 6  16605464.018    16605458.503
       334.173         272.537
  -7074204.105 9 -12377563.796 9  18400581.152    18400575.093
      3128.515        2430.540
  -6973013.141 9 -12489484.135 8  18244195.543    18244189.884
      2785.794        2161.111
 89  5 21 23 12 59.0800000  0  4G 6G 8G 9G11
   1991111.359 9 -12298408.716 9  16312710.152    16312704.523
       400.496         323.061
  -1810933.587 9  -6035124.738 7  16603565.258    16603561.326
       329.540         253.796
  -7167768.172 9 -12450470.806 9  18382776.457    18382771.338
      3109.584        2424.668
  -7056161.133 9 -12554274.719 8  18228371.521    18228366.206
      2783.401        2162.627
 89  5 21 23 13 29.0800000  0  4G 6G 8G 9G11
   1979014.547 9 -12307834.783 8  16310406.960    16310401.714
       390.504         295.739
  -1820247.216 8  -6042382.087 8  16601792.834    16601789.048
       295.936         236.341
  -7261108.999 9 -12523203.862 8  18365014.034    18365009.281
      3112.200        2417.951
  -7138920.027 9 -12618762.104 9  18212623.475    18212617.674
      2762.947        2135.355
 89  5 21 23 13 59.0800000  0  4G 6G 8G 9G11
   1967427.581 8 -12316863.586 8  16308202.261    16308197.395
       396.501         286.779
  -1828905.163 8  -6049128.536 7  16600145.963    16600141.571
       283.656         220.589
  -7354224.892 9 -12595761.645 8  18347295.221    18347289.915
      3098.085        2414.664
  -7221288.162 9 -12682945.003 8  18196950.039    18196943.750
      2737.485        2126.295
 89  5 21 23 14 29.0800000  0  4G 6G 8G 9G11
   1956352.230 9 -12325493.714 8  16306094.754    16306090.228
       348.655         278.278
  -1836908.212 9  -6055364.670 8  16598622.623    16598618.451
       254.286         204.844
  -7447112.333 9 -12668141.420 8  18329619.551    18329613.070
      3090.613        2407.866
  -7303263.571 9 -12746821.890 9  18181350.528    18181343.852
      2727.365        2123.300
 89  5 21 23 14 59.0800000  0  4G 6G 8G 9G11
   1945789.892 8 -12333724.110 8  16304084.501    16304079.985
       352.459         259.165
  -1844256.648 9  -6061090.718 9  16597225.018    16597220.034
       242.564         192.957
  -7539769.301 9 -12740341.598 9  18311987.075    18311981.266
      3097.631        2410.004
  -7384844.666 9 -12810391.502 8  18165825.685    18165820.226
      2724.216        2115.414
 89  5 21 23 15 29.0800000  0  4G 6G 8G 9G11
   1935742.285 8 -12341553.407 8  16302173.167    16302168.356
       311.566         247.433
  -1850951.070 9  -6066307.123 8  16595950.957    16595946.410
       195.731         153.623
  -7632192.729 9 -12812359.797 8  18294398.179    18294393.633
      3073.341        2394.681
  -7466029.518 9 -12873652.359 8  18150376.471    18150370.455
      2693.435        2107.896
 89  5 21 23 15 59.0800000  0  4G 6G 8G 9G11
   1926210.338 8 -12348980.891 8  16300358.230    16300354.512
       301.064         250.198
  -1856992.441 9  -6071014.673 9  16594801.002    16594797.471
       199.431         156.432
  -7724380.845 9 -12884194.627 8  18276856.303    18276851.786
      3070.534        2379.761
  -7546816.933 9 -12936603.534 8  18135003.553    18134997.082
      2697.709        2097.674
 89  5 21 23 16 29.0800000  0  4G 6G 8G 9G11
   1917196.037 9 -12356005.010 8  16298641.625    16298640.080
       285.570         240.654
  -1862381.048 8  -6075213.576 8  16593775.473    16593771.653
       170.771         146.415
  -7816330.365 9 -12955843.547 9  18259359.143    18259353.567
      3068.134        2380.793
  -7627205.437 9 -12999243.859 8  18119706.512    18119699.363
      2676.816        2096.096
 89  5 21 23 16 59.0800000  0  4G 6G 8G 9G11
   1908700.872 9 -12362624.610 9  16297027.049    16297023.054
       271.766         212.760
  -1867117.632 8  -6078904.412 7  16592874.040    16592869.992
       154.264         131.975
  -7908038.826 9 -13027304.620 8  18241908.244    18241902.779
      3050.686        2375.095
  -7707192.712 9 -13061571.545 8  18104485.605    18104479.020
      2665.492        2059.869
 89  5 21 23 17 29.0800000  0  4G 6G 8G 9G11
   1900726.277 8 -12368838.576 8  16295509.359    16295505.306
       261.726         210.076
  -1871203.254 9  -6082088.003 9  16592095.485    16592092.270
       124.727          91.790
  -7999503.871 8 -13098576.011 8  18224501.525    18224497.210
      3037.233        2369.993
  -7786777.333 8 -13123585.469 8  18089339.621    18089334.073
      2640.860        2080.723
 89  5 21 23 17 59.0800000  0  4G 6G 8G 9G11
   1893273.426 8 -12374645.997 8  16294091.458    16294088.228
       255.140         193.559
  -1874638.346 8  -6084764.697 8  16591443.149    16591437.415
       109.113          93.915
  -8090722.470 9 -13169655.364 8  18207144.327    18207137.799
      3054.386        2360.579
  -7865957.902 9 -13185284.544 7  18074271.638    18074267.333
      2635.987        2057.123
 89  5 21 23 18 29.0800000  0  4G 6G 8G 9G11
   1886343.716 9 -12380045.776 9  16292773.475    16292767.950
       223.162         164.031
  -1877423.687 9  -6086935.084 7  16590912.770    16590909.283
        77.630          55.601
  -8181692.563 9 -13240541.078 8  18189831.778    18189827.448
      3022.321        2369.620
  -7944733.144 9 -13246667.804 7  18059281.896    18059275.703
      2620.015        2052.264
 89  5 21 23 18 59.0800000  0  4G 6G 8G 9G11
   1879938.847 9 -12385036.580 8  16291553.121    16291549.432
       201.624         164.783
  -1879560.234 9  -6088599.920 8  16590506.404    16590501.943
        60.533          52.979
  -8272411.234 9 -13311230.883 8  18172568.842    18172564.684
      3019.769        2369.931
  -8023101.134 9 -13307733.715 9  18044369.364    18044362.064
      2611.331        2040.246
 89  5 21 23 19 29.0800000  0  4G 6G 8G 9G11
   1874059.966 9 -12389617.507 8  16290434.628    16290430.537
       178.466         160.272
  -1881048.731 9  -6089759.774 8  16590222.915    16590218.342
        54.600          23.985
  -8362876.064 9 -13381722.895 8  18155353.309    18155349.803
      3012.489        2358.305
  -8101060.218 9 -13368481.000 9  18029534.210    18029527.477
      2598.428        2026.439
 89  5 21 23 19 59.0800000  0  4G 6G 8G 9G11
   1868708.538 8 -12393787.448 8  16289416.172    16289412.850
       173.331         131.341
  -1881889.903 9  -6090415.230 8  16590062.668    16590059.036
         9.011          15.000
  -8453084.320 9 -13452014.992 8  18138187.288    18138183.036
      3009.299        2338.837
  -8178609.433 9 -13428908.897 8  18014775.756    18014770.233
      2562.902        2009.923
 89  5 21 23 20 29.0800000  0  4G 6G 8G 9G11
   1863885.649 8 -12397545.532 8  16288501.028    16288494.843
       154.392         122.747
  -1882085.340 9  -6090567.513 8  16590025.961    16590021.569
        -1.228          14.633
  -8543033.514 9 -13522105.200 8  18121070.596    18121066.547
      3000.352        2335.233
  -8255747.187 9 -13489016.180 7  18000098.462    18000091.005
      2572.830        1999.148
 89  5 21 23 20 59.0800000  0  4G 6G 8G 9G11
   1859593.127 9 -12400890.333 8  16287681.372    16287678.502
       132.446          95.363
  -1881634.944 9  -6090216.544 8  16590110.909    16590107.564
       -21.331         -12.813
  -8632720.742 9 -13591991.289 8  18104003.737    18103999.227
      2995.407        2326.267
  -8332471.600 8 -13548801.375 8  17985498.213    17985491.209
      2563.548        1984.944
 89  5 21 23 21 29.0800000  0  4G 6G 8G 9G11
   1855832.384 9 -12403820.786 8  16286967.184    16286962.895
       122.662          87.720
  -1880540.225 9  -6089363.511 8  16590319.834    16590316.976
       -44.529         -28.590
  -8722143.335 9 -13661671.178 8  18086986.707    18086981.889
      2970.535        2315.529
  -8408780.903 9 -13608263.097 7  17970976.298    17970970.996
      2533.509        1974.219
 89  5 21 23 21 59.0800000  0  4G 6G 8G 9G11
   1852604.402 9 -12406336.097 8  16286352.564    16286348.833
       100.764          76.026
  -1878801.999 9  -6088009.048 8  16590650.898    16590646.293
       -64.824         -45.845
  -8811298.271 9 -13731142.506 9  18070021.743    18070016.787
      2960.001        2299.560
  -8484674.148 9 -13667400.631 8  17956535.076    17956528.916
      2529.801        1959.529
 89  5 21 23 22 29.0800000  0  4G 6G 8G 9G11
   1849910.455 8 -12408435.262 9  16285839.837    16285835.387
        78.276          37.575
  -1876421.177 9  -6086153.851 8  16591104.829    16591099.697
       -77.224         -64.226
  -8900183.640 9 -13800403.785 8  18053107.071    18053102.294
      2963.957        2294.806
  -8560149.557 9 -13726212.587 8  17942171.935    17942166.527
      2519.514        1946.076
 89  5 21 23 22 59.0800000  0  4G 6G 8G 9G11
   1847752.125 8 -12410117.082 9  16285428.457    16285425.404
        53.476          64.723
  -1873398.738 9  -6083798.700 7  16591678.026    16591674.868
      -114.328         -97.650
  -8988796.377 9 -13869452.600 8  18036244.910    18036240.467
      2948.470        2300.579
  -8635205.576 9 -13784697.747 8  17927890.233    17927883.239
      2496.069        1946.139
 89  5 21 23 23 29.0800000  0  4G 6G 8G 9G11
   1846130.578 8 -12411380.627 9  16285121.667    16285116.878
        41.108          27.863
  -1869735.556 9  -6080944.257 8  16592375.585    16592372.410
      -133.459         -88.658
  -9077133.782 9 -13938286.884 8  18019435.162    18019430.405
      2954.778        2291.998
  -8709840.840 9 -13842855.029 8  17913686.234    17913680.462
      2495.814        1933.015
 89  5 21 23 23 59.0800000  0  4G 6G 8G 9G11
   1845046.680 9 -12412225.216 9  16284913.731    16284909.831
        30.087          23.115
  -1865433.040 8  -6077591.636 7  16593194.358    16593190.649
      -117.773        -136.076
  -9165193.442 9 -14006904.737 7  18002677.374    18002673.012
      2940.105        2302.219
  -8784054.329 8 -13900683.668 8  17899563.478    17899557.926
      2465.791        1934.183
 89  5 21 23 24 29.0800000  0  4G 6G 8G 9G11
   1844501.992 9 -12412649.654 8  16284810.565    16284806.370
         9.194           8.706
  -1860492.230 8  -6073741.652 8  16594135.424    16594130.580
      -165.484        -144.470
  -9252972.622 9 -14075304.051 7  17985972.783    17985968.955
      2925.074        2281.198
  -8857844.270 9 -13958182.267 8  17885522.239    17885516.149
      2447.761        1919.997
 89  5 21 23 24 59.0800000  0  4G 6G 8G 9G11
   1844497.920 9 -12412652.836 8  16284809.368    16284805.705
       -27.193           5.648
  -1854914.023 8  -6069395.006 8  16595196.538    16595191.704
      -199.439        -153.654
  -9340468.263 9 -14143482.415 8  17969323.396    17969318.875
      2915.074        2269.541
  -8931209.017 9 -14015349.551 8  17871560.077    17871555.923
      2432.697        1892.967
 89  5 21 23 25 29.0800000  0  4G 6G 8G 9G11
   1845035.062 9 -12412234.288 8  16284912.705    16284906.942
       -24.091         -14.863
  -1848700.185 8  -6064553.047 7  16596378.320    16596373.969
      -223.561        -141.407
  -9427678.405 9 -14211438.316 8  17952728.555    17952723.426
      2907.450        2258.785
  -9004147.732 9 -14072184.873 7  17857680.117    17857675.988
      2428.734        1890.525
 89  5 21 23 25 59.0800000  0  4G 6G 8G 9G11
   1846115.269 9 -12411392.560 8  16285116.977    16285113.611
       -39.441         -25.290
  -1841851.341 9  -6059216.268 8  16597682.547    16597677.555
      -241.910        -179.572
  -9514599.458 8 -14279168.946 8  17936187.357    17936182.688
      2897.522        2263.613
  -9076658.589 9 -14128686.784 8  17843883.143    17843877.419
      2408.391        1882.491
 89  5 21 23 26 29.0800000  0  4G 6G 8G 9G11
   1847739.449 8 -12410126.955 8  16285426.703    16285421.656
       -42.822         -36.127
  -1834369.009 8  -6053385.873 7  16599106.028    16599101.938
      -261.296        -196.859
  -9601229.182 9 -14346672.571 8  17919702.268    17919696.730
      2888.431        2247.501
  -9148740.253 9 -14184854.261 8  17830167.772    17830160.217
      2396.980        1883.379
 89  5 21 23 26 59.0800000  0  4G 6G 8G 9G11
   1849908.666 8 -12408436.662 8  16285839.598    16285835.196
       -94.879         -71.142
  -1826254.354 7  -6047062.777 8  16600650.936    16600646.060
      -281.742        -219.626
  -9687564.918 9 -14413947.110 8  17903272.589    17903268.351
      2879.915        2237.316
  -9220391.677 9 -14240686.495 7  17816532.119    17816525.663
      2373.543        1855.753
 89  5 21 23 27 29.0800000  0  4G 6G 8G 9G11
   1852624.110 9 -12406320.726 9  16286357.249    16286351.908
      -107.367         -78.219
  -1817508.869 9  -6040248.096 8  16602314.553    16602310.206
      -313.009        -243.711
  -9773603.765 9 -14480990.320 8  17886900.355    17886896.097
      2879.229        2245.158
  -9291612.035 9 -14296182.831 8  17802980.237    17802973.263
      2359.548        1846.420
 89  5 21 23 27 59.0800000  0  4G 6G 8G 9G11
   1855886.895 8 -12403778.303 8  16286977.393    16286973.340
      -121.418        -100.924
  -1808133.134 9  -6032942.336 8  16604098.513    16604093.951
      -325.633        -247.675
  -9859343.115 9 -14547800.150 8  17870584.690    17870580.523
      2845.856        2235.626
  -9362399.104 9 -14351341.533 8  17789507.064    17789502.636
      2358.185        1848.570
 89  5 21 23 28 29.0800000  0  4G 6G 8G 9G11
   1859698.257 9 -12400808.402 9  16287701.842    16287697.959
      -141.441         -98.433
  -1798128.765 9  -6025146.725 8  16606003.154    16605998.237
      -327.866        -264.160
  -9944780.109 9 -14614374.364 8  17854325.991    17854322.140
      2852.563        2215.475
  -9432751.669 9 -14406161.658 9  17776120.661    17776114.358
      2337.946        1819.564
 89  5 21 23 28 59.0800000  0  4G 6G 8G 9G11
   1864059.291 8 -12397410.195 9  16288532.532    16288527.494
      -144.543        -123.182
  -1787496.605 9  -6016861.906 9  16608025.555    16608022.142
      -363.431        -300.449
 -10029911.955 9 -14680710.826 8  17838126.390    17838121.685
      2832.858        2192.714
  -9502668.454 9 -14460642.217 8  17762816.313    17762811.014
      2323.297        1807.528
 89  5 21 23 29 29.0800000  0  4G 6G 8G 9G11
   1868971.000 8 -12393582.906 8  16289467.640    16289462.771
      -167.366        -129.234
  -1776238.891 9  -6008089.659 8  16610167.358    16610164.084
      -387.099        -297.901
 -10114736.013 9 -14746807.435 8  17821984.688    17821980.656
      2835.649        2195.175
  -9572148.435 9 -14514782.421 8  17749595.593    17749588.823
      2312.739        1809.466
 89  5 21 23 29 59.0800000  0  4G 6G 8G 9G11
   1874434.329 9 -12389325.751 8  16290506.842    16290502.719
      -191.034        -149.094
  -1764356.610 9  -5998830.747 7  16612428.833    16612424.474
      -416.804        -337.527
 -10199249.577 9 -14812662.112 9  17805902.219    17805898.343
      2811.894        2175.210
  -9641190.422 9 -14568581.330 8  17736456.408    17736449.123
      2297.763        1796.076
 89  5 21 23 30 29.0800000  0  4G 6G 8G 9G11
   1880450.336 9 -12384637.960 8  16291652.219    16291646.907
      -207.652        -162.956
  -1751851.321 9  -5989086.366 8  16614808.429    16614804.412
      -414.013        -324.993
 -10283450.091 9 -14878272.837 8  17789879.167    17789875.644
      2810.506        2184.021
  -9709793.241 8 -14622038.020 8  17723400.447    17723395.580
      2278.896        1761.788
 89  5 21 23 30 59.0800000  0  4G 6G 8G 9G11
   1887020.148 8 -12379518.610 8  16292902.222    16292898.313
      -215.874        -168.188
  -1738723.998 8  -5978857.288 7  16617306.753    16617302.277
      -438.781        -342.044
 -10367334.319 9 -14943637.117 9  17773916.781    17773912.991
      2803.736        2170.456
  -9777955.448 9 -14675151.393 8  17710430.580    17710423.893
      2278.489        1773.110
 89  5 21 23 31 29.0800000  0  4G 6G 8G 9G11
   1894144.711 8 -12373967.019 9  16294258.000    16294253.347
      -240.626        -194.398
  -1724976.174 9  -5968144.693 7  16619922.730    16619919.202
      -453.167        -371.348
 -10450899.699 9 -15008752.953 8  17758014.630    17758010.276
      2780.690        2186.283
  -9845675.909 9 -14727920.541 8  17697544.069    17697537.928
      2255.260        1762.577
 89  5 21 23 31 59.0800000  0  4G 6G 8G 9G11
   1901825.029 9 -12367982.362 8  16295719.580    16295715.105
      -283.441        -212.064
  -1710609.569 9  -5956949.937 7  16622656.123    16622652.751
      -479.362        -383.968
 -10534143.549 9 -15073618.233 8  17742174.459    17742169.175
      2774.079        2167.691
  -9912953.453 9 -14780344.553 8  17684739.977    17684735.322
      2244.422        1744.594
 89  5 21 23 32 29.0800000  0  4G 6G 8G 9G11
   1910062.132 9 -12361563.851 7  16297286.623    16297281.582
      -284.134        -213.965
  -1695625.333 8  -5945273.903 8  16625508.260    16625505.144
      -509.123        -393.277
 -10617062.809 9 -15138230.584 9  17726394.522    17726389.961
      2754.534        2145.433
  -9979786.653 9 -14832422.330 7  17672022.314    17672018.560
      2224.893        1729.340
 89  5 21 23 32 59.0800000  0  4G 6G 8G 9G11
   1918856.894 9 -12354710.791 7  16298959.131    16298955.529
      -303.440        -239.144
  -1680025.037 9  -5933117.841 8  16628476.177    16628472.230
      -537.846        -417.069
 -10699654.971 9 -15202588.055 8  17710677.631    17710673.898
      2756.336        2134.690
 -10046174.585 9 -14884153.133 8  17659388.496    17659384.269
      2232.254        1728.184
 89  5 21 23 33 29.0800000  0  4G 6G 8G 9G11
   1928210.340 8 -12347422.422 8  16300740.235    16300735.703
      -303.081        -243.611
  -1663810.205 9  -5920482.899 7  16631561.807    16631558.161
      -556.706        -426.160
 -10781917.041 9 -15266688.308 8  17695024.091    17695019.950
      2745.802        2132.378
 -10112115.808 9 -14935535.872 8  17646840.635    17646836.045
      2189.575        1698.594
 89  5 21 23 33 59.0800000  0  4G 6G 8G 9G11
   1938123.322 8 -12339698.004 8  16302625.933    16302622.201
      -353.041        -264.856
  -1646982.395 8  -5907370.333 7  16634764.400    16634759.837
      -564.122        -429.428
 -10863846.443 9 -15330529.356 8  17679432.229    17679429.495
      2712.134        2123.089
 -10177609.389 9 -14986569.783 8  17634377.992    17634372.350
      2188.092        1701.272
 89  5 21 23 34 29.0800000  0  4G 6G 8G 9G11
   1948596.626 8 -12331536.995 8  16304619.429    16304615.062
      -348.479        -276.737
  -1629543.780 8  -5893781.808 7  16638083.893    16638078.560
      -579.776        -454.513
 -10945440.307 9 -15394108.948 9  17663905.672    17663902.271
      2720.005        2118.987
 -10242654.263 9 -15037254.065 7  17622000.212    17621995.752
      2158.100        1692.591
 89  5 21 23 34 59.0800000  0  4G 6G 8G 9G11
   1959631.248 9 -12322938.604 8  16306718.731    16306714.424
      -384.747        -284.511
  -1611495.247 9  -5879718.022 8  16641517.178    16641512.658
      -613.124        -465.773
 -11026695.916 9 -15457424.957 8  17648443.881    17648440.298
      2691.537        2113.053
 -10307249.376 8 -15087587.885 8  17609708.342    17609702.548
      2136.338        1678.735
 89  5 21 23 35 29.0800000  0  4G 6G 8G 9G11
   1971227.822 8 -12313902.323 8  16308926.959    16308921.621
      -387.251        -319.221
  -1592838.297 9  -5865180.116 7  16645065.906    16645062.935
      -636.665        -503.932
 -11107610.611 9 -15520475.317 8  17633046.099    17633041.802
      2707.764        2091.386
 -10371393.761 9 -15137570.467 8  17597501.834    17597496.930
      2127.191        1659.484
 89  5 21 23 35 59.0800000  0  4G 6G 8G 9G11
   1983387.071 7 -12304427.579 9  16311239.440    16311235.463
      -394.739        -330.698
  -1573575.018 9  -5850169.803 7  16648733.225    16648729.323
      -641.784        -509.182
 -11188181.645 9 -15583257.895 7  17617714.550    17617710.028
      2682.861        2087.428
 -10435086.281 9 -15187200.977 8  17585380.871    17585376.339
      2111.418        1667.158
 89  5 21 23 36 29.0800000  0  4G 6G 8G 9G11
   1996110.026 9 -12294513.602 9  16313660.334    16313656.681
      -433.454        -325.689
  -1553707.032 9  -5834688.248 7  16652513.844    16652509.828
      -687.086        -543.420
 -11268405.943 9 -15645770.272 8  17602447.207    17602443.399
      2667.247        2072.210
 -10498325.634 9 -15236478.358 8  17573347.066    17573342.763
      2098.875        1628.714
 89  5 21 23 36 59.0800000  0  4G 6G 8G 9G11
   2009397.537 8 -12284159.711 8  16316189.158    16316184.439
      -441.086        -341.758
  -1533235.728 9  -5818736.595 7  16656409.109    16656405.333
      -695.739        -537.349
 -11348280.702 9 -15708010.303 7  17587246.712    17587244.137
      2653.946        2091.168
 -10561110.967 9 -15285401.961 9  17561400.520    17561394.293
      2102.543        1625.482
 89  5 21 23 37 29.0800000  0  4G 6G 8G 9G11
   2023250.097 9 -12273365.507 8  16318824.523    16318819.815
      -451.516        -370.677
  -1512163.418 9  -5802316.607 7  16660417.995    16660415.666
      -707.254        -549.852
 -11427803.637 8 -15769976.182 7  17572114.445    17572110.203
      2645.525        2077.641
 -10623441.324 9 -15333971.028 9  17549539.806    17549534.278
      2086.961        1605.008
 89  5 21 23 37 59.0800000  0  4G 6G 8G 9G11
   2037668.674 8 -12262130.251 9  16321568.574    16321564.259
      -482.983        -390.077
  -1490491.754 8  -5785429.602 7  16664542.942    16664539.285
      -726.177        -581.107
 -11506971.381 9 -15831665.288 8  17557050.969    17557045.626
      2642.885        2049.144
 -10685315.784 9 -15382184.866 8  17537764.601    17537758.774
      2050.574        1603.840
 89  5 21 23 38 29.0800000  0  4G 6G 8G 9G11
   2052653.935 8 -12250453.420 8  16324420.024    16324416.914
      -515.773        -390.946
  -1468222.049 8  -5768076.604 8  16668781.056    16668777.264
      -768.616        -581.946
 -11585781.498 9 -15893075.724 8  17542052.443    17542049.104
      2624.512        2036.804
 -10746733.153 9 -15430042.499 8  17526077.566    17526071.751
      2039.147        1598.508
 89  5 21 23 38 59.0800000  0  4G 6G 8G 9G11
   2068206.593 8 -12238334.490 8  16327379.586    16327375.376
      -522.647        -415.895
  -1445356.097 9  -5750258.994 8  16673133.271    16673128.149
      -772.859        -585.276
 -11664230.775 9 -15954204.987 8  17527124.600    17527119.947
      2609.999        2028.490
 -10807692.232 9 -15477543.049 8  17514478.437    17514472.046
      2035.773        1564.575
 89  5 21 23 39 29.0800000  0  4G 6G 8G 9G11
   2084327.300 8 -12225772.891 8  16330447.538    16330443.335
      -540.366        -416.063
  -1421896.098 8  -5731978.494 7  16677597.923    16677591.201
      -779.469        -605.049
 -11742316.820 9 -16015051.211 8  17512264.404    17512261.524
      2591.706        2025.445
 -10868192.458 9 -15524686.033 8  17502965.092    17502957.636
      1997.353        1564.103
 89  5 21 23 39 59.0800000  0  4G 6G 8G 9G11
   2101016.519 8 -12212768.304 8  16333623.214    16333619.500
      -554.449        -444.938
  -1397843.634 9  -5713236.313 7  16682173.969    16682169.140
      -818.073        -623.168
 -11820036.818 9 -16075612.212 9  17497474.844    17497470.947
      2606.115        2022.090
 -10928232.887 9 -15571470.748 8  17491538.038    17491532.947
      2000.096        1548.214
 89  5 21 23 40 29.0800000  0  4G 6G 8G 9G11
   2118274.991 9 -12199320.163 7  16336908.063    16336902.475
      -565.517        -455.651
  -1373200.354 8  -5694033.770 8  16686863.593    16686858.225
      -821.502        -653.926
 -11897388.063 9 -16135885.867 8  17482756.047    17482752.439
      2578.070        2001.789
 -10987812.549 9 -15617896.407 7  17480200.714    17480195.413
      1987.983        1535.271
 89  5 21 23 40 59.0800000  0  4G 6G 8G 9G11
   2136103.339 8 -12185427.947 8  16340300.662    16340295.496
      -631.968        -461.187
  -1347968.059 9  -5674372.247 8  16691664.447    16691660.388
      -842.291        -669.138
 -11974367.381 9 -16195869.716 9  17468107.801    17468102.562
      2578.141        2001.771
 -11046930.748 9 -15663962.511 7  17468951.515    17468944.631
      1960.296        1534.475
 89  5 21 23 41 29.0800000  0  4G 6G 8G 9G11
   2154502.367 8 -12171091.053 8  16343801.778    16343797.374
      -630.636        -482.357
  -1322149.001 9  -5654253.513 8  16696577.411    16696573.250
      -871.294        -678.527
 -12050972.176 9 -16255561.724 9  17453529.344    17453525.747
      2564.689        1990.107
 -11105586.406 9 -15709668.176 8  17457789.656    17457783.565
      1945.320        1528.498
 89  5 21 23 41 59.0800000  0  4G 6G 8G 9G11
   2173472.544 8 -12156309.113 8  16347411.041    16347406.225
      -647.055        -515.819
  -1295744.634 8  -5633678.697 8  16701601.811    16701597.937
      -888.511        -699.778
 -12127199.699 9 -16314959.753 8  17439024.875    17439019.850
      2527.488        1963.394
 -11163778.487 9 -15755012.620 8  17446715.966    17446708.994
      1927.585        1518.723
 89  5 21 23 42 29.0800000  0  4G 6G 8G 9G11
   2193014.163 8 -12141081.894 7  16351131.439    16351126.305
      -662.358        -507.884
  -1268757.364 9  -5612649.661 8  16706738.547    16706733.180
      -891.972        -717.151
 -12203047.281 9 -16374061.719 9  17424591.072    17424587.327
      2522.967        1967.738
 -11221506.415 8 -15799995.378 8  17435730.168    17435725.146
      1898.296        1514.038
 89  5 21 23 42 59.0800000  0  4G 6G 8G 9G11
   2213127.987 8 -12125408.782 7  16354956.167    16354952.208
      -685.420        -537.275
  -1241188.897 9  -5591167.749 7  16711984.683    16711980.422
      -940.049        -734.233
 -12278511.618 9 -16432865.063 8  17410229.874    17410227.140
      2509.729        1964.780
 -11278769.697 9 -15844616.085 8  17424832.989    17424828.603
      1913.104        1477.688
 89  5 21 23 43 29.0800000  0  4G 6G 8G 9G11
   2233814.629 8 -12109289.357 7  16358894.289    16358888.451
      -706.640        -526.370
  -1213041.323 9  -5569234.584 8  16717340.611    16717337.759
      -938.925        -727.007
 -12353590.206 9 -16491367.833 8  17395943.618    17395939.365
      2507.225        1947.431
 -11335567.065 9 -15888873.740 8  17414024.462    17414020.088
      1872.762        1481.453
 89  5 21 23 43 59.0800000  0  4G 6G 8G 9G11
   2255074.403 7 -12092723.290 6  16362938.414    16362934.714
      -695.005        -554.232
  -1184316.643 9  -5546851.725 9  16722805.774    16722802.729
      -953.047        -742.752
 -12428280.425 9 -16549567.961 9  17381730.473    17381726.534
      2486.532        1945.064
 -11391897.754 9 -15932767.750 8  17403306.102    17403301.020
      1879.085        1469.697
 89  5 21 23 44 29.0800000  0  4G 6G 8G 9G11
   2276907.874 8 -12075710.203 8  16367095.266    16367090.031
      -742.421        -570.512
  -1155016.389 9  -5524020.371 9  16728382.303    16728378.079
      -982.465        -775.176
 -12502579.148 9 -16607463.032 9  17367592.545    17367586.988
      2467.473        1928.591
 -11447761.054 9 -15976297.557 7  17392675.532    17392670.904
      1838.432        1452.857
 89  5 21 23 44 59.0800000  0  4G 6G 8G 9G11
   2299315.645 8 -12058249.623 7  16371358.000    16371354.042
      -753.329        -606.416
  -1125142.766 9  -5500742.234 8  16734066.525    16734063.535
     -1006.164        -771.162
 -12576483.663 9 -16665050.917 8  17353527.595    17353523.889
      2456.197        1924.297
 -11503156.144 9 -16019462.540 7  17382132.762    17382128.043
      1836.694        1454.187
 89  5 21 23 45 29.0800000  0  4G 6G 8G 9G11
   2322297.802 8 -12040341.461 8  16375731.838    16375726.676
      -769.007        -606.838
  -1094698.046 9  -5477019.086 8  16739859.619    16739856.417
     -1020.997        -789.859
 -12649991.412 9 -16722329.643 8  17339540.072    17339535.514
      2431.557        1897.311
 -11558082.524 9 -16062262.302 8  17371682.599    17371676.522
      1827.906        1416.059
 89  5 21 23 45 59.0800000  0  4G 6G 8G 9G11
   2345854.997 8 -12021985.201 8  16380214.489    16380209.783
      -806.311        -606.757
  -1063683.983 9  -5452852.288 8  16745762.332    16745758.609
     -1030.901        -813.937
 -12723099.338 9 -16779296.811 9  17325629.435    17325624.791
      2415.066        1911.341
 -11612539.132 9 -16104695.990 7  17361320.730    17361315.020
      1805.522        1402.109
 89  5 21 23 46 29.0800000  0  4G 6G 8G 9G11
   2369987.534 8 -12003180.624 7  16384805.594    16384802.349
      -814.979        -631.476
  -1032102.808 9  -5428243.601 8  16751771.459    16751767.614
     -1035.717        -820.114
 -12795804.632 9 -16835950.242 8  17311792.222    17311788.063
      2432.777        1886.418
 -11666525.369 9 -16146763.158 7  17351045.851    17351041.106
      1798.752        1403.122
 89  5 21 23 46 59.0800000  0  4G 6G 8G 9G11
   2394695.963 9 -11983927.300 7  16389508.718    16389503.698
      -829.365        -634.496
   -999956.245 8  -5403194.341 7  16757890.291    16757885.854
     -1066.793        -845.273
 -12868104.454 9 -16892287.735 9  17298035.069    17298030.243
      2397.666        1874.997
 -11720040.206 9 -16188463.010 7  17340861.067    17340857.561
      1783.457        1405.403
 89  5 21 23 47 29.0800000  0  4G 6G 8G 9G11
   2419980.191 8 -11964225.307 8  16394318.725    16394316.222
      -857.634        -651.733
   -967246.508 9  -5377706.237 8  16764113.058    16764110.748
     -1110.589        -851.475
 -12939996.231 9 -16948307.253 8  17284353.845    17284350.160
      2382.602        1858.822
 -11773083.400 9 -16229795.335 7  17330768.094    17330763.240
      1773.888        1366.138
 89  5 21 23 47 59.0800000  0  4G 6G 8G 9G11
   2445840.773 8 -11944074.200 8  16399240.401    16399236.970
      -870.720        -679.664
   -933975.840 9  -5351781.063 8  16770444.417    16770442.339
     -1113.507        -871.806
 -13011477.114 9 -17004006.612 8  17270750.657    17270746.637
      2378.926        1851.465
 -11825654.220 9 -16270759.583 7  17320764.177    17320759.341
      1755.563        1370.139
 89  5 21 23 48 29.0800000  0  4G 6G 8G 9G11
   2472278.336 8 -11923473.511 7  16404271.576    16404266.501
      -887.307        -700.039
   -900146.088 8  -5325420.224 8  16776883.037    16776879.163
     -1132.151        -882.432
 -13082543.891 9 -17059383.290 9  17257227.468    17257224.716
      2365.385        1835.136
 -11877751.788 9 -16311355.062 7  17310851.262    17310845.604
      1715.029        1358.433
 89  5 21 23 48 59.0800000  0  4G 6G 8G 9G11
   2499292.903 7 -11902423.206 8  16409412.103    16409408.441
      -907.697        -689.854
   -865759.419 8  -5298625.446 8  16783425.620    16783422.356
     -1152.191        -906.653
 -13153194.197 9 -17114435.447 8  17243783.866    17243779.655
      2352.834        1823.565
 -11929375.614 9 -16351581.390 9  17301026.317    17301022.120
      1716.018        1334.702
 89  5 21 23 49 29.0800000  0  4G 6G 8G 9G11
   2526884.679 8 -11880923.133 7  16414662.175    16414658.644
      -935.711        -728.796
   -830818.060 8  -5271398.426 8  16790076.456    16790072.038
     -1170.460        -913.327
 -13223424.978 9 -17169160.718 9  17230418.275    17230415.600
      2324.517        1809.044
 -11980524.978 9 -16391438.027 7  17291293.812    17291288.583
      1698.977        1332.478
 89  5 21 23 49 59.0800000  0  4G 6G 8G 9G11
   2555054.096 8 -11858972.949 7  16420023.521    16420019.174
      -946.787        -730.089
   -795324.246 9  -5243740.937 8  16796829.702    16796825.815
     -1182.685        -933.317
 -13293233.647 9 -17223557.068 8  17217135.155    17217130.891
      2323.345        1806.217
 -12031199.198 9 -16430924.401 7  17281650.968    17281645.432
      1676.050        1309.114
 89  5 21 23 50 29.0800000  0  4G 6G 8G 9G11
   2583801.072 9 -11836572.711 8  16425492.988    16425488.929
      -961.604        -758.131
   -759280.371 9  -5215654.816 7  16803688.855    16803684.716
     -1195.978        -937.169
 -13362617.467 9 -17277622.359 9  17203932.462    17203927.354
      2308.791        1796.883
 -12081398.036 9 -16470040.356 8  17272098.563    17272092.576
      1665.093        1305.970
 89  5 21 23 50 59.0800000  0  4G 6G 8G 9G11
   2613125.908 9 -11813722.209 8  16431074.350    16431071.579
      -983.477        -771.242
   -722688.636 8  -5187141.797 8  16810652.364    16810648.130
     -1228.234        -946.061
 -13431573.676 9 -17331354.444 9  17190809.855    17190804.744
      2286.073        1776.111
 -12131120.896 8 -16508785.411 6  17262637.359    17262631.022
      1655.779        1282.767
 89  5 21 23 51 29.0800000  0  4G 6G 8G 9G11
   2643028.808 9 -11790421.254 8  16436764.234    16436760.858
     -1007.400        -767.309
   -685551.301 9  -5158203.620 7  16817718.659    16817714.442
     -1250.251        -979.721
 -13500099.486 9 -17384751.153 8  17177769.862    17177766.037
      2280.203        1768.580
 -12180367.253 8 -16547159.158 7  17253263.544    17253258.898
      1633.116        1264.549
 89  5 21 23 51 59.0800000  0  4G 6G 8G 9G11
   2673509.765 8 -11766669.876 8  16442565.900    16442560.425
     -1015.734        -805.480
   -647870.607 9  -5128842.064 8  16824889.265    16824885.628
     -1265.857        -983.126
 -13568192.149 9 -17437810.354 8  17164811.788    17164808.190
      2269.486        1745.452
 -12229136.431 9 -16585161.087 6  17243984.857    17243979.591
      1615.844        1272.794
 89  5 21 23 52 29.0800000  0  4G 6G 8G 9G11
   2704569.107 9 -11742467.820 8  16448475.433    16448471.101
     -1046.626        -809.588
   -609648.677 9  -5099058.767 9  16832162.466    16832158.306
     -1292.683       -1007.621
 -13635848.622 9 -17490529.662 9  17151938.201    17151933.438
      2254.008        1742.643
 -12277427.960 8 -16622790.817 7  17234794.968    17234790.387
      1604.504        1256.775
 89  5 21 23 52 59.0800000  0  4G 6G 8G 9G11
   2736206.895 9 -11717815.016 8  16454495.886    16454492.024
     -1065.573        -810.700
   -570887.596 9  -5068855.350 9  16839539.526    16839534.386
     -1300.881       -1017.706
 -13703066.284 9 -17542907.020 8  17139147.126    17139143.012
      2232.437        1741.972
 -12325241.388 8 -16660048.011 8  17225696.440    17225690.382
      1586.490        1243.285
 89  5 21 23 53 29.0800000  0  4G 6G 8G 9G11
   2768423.384 9 -11692711.279 8  16460626.375    16460621.157
     -1076.841        -846.274
   -531589.444 9  -5038233.429 8  16847015.971    16847012.591
     -1306.614       -1021.180
 -13769842.230 9 -17594940.187 8  17126439.654    17126435.340
      2227.142        1726.543
 -12372576.051 9 -16696932.128 7  17216688.878    17216683.904
      1574.585        1227.328
 89  5 21 23 53 59.0800000  0  4G 6G 8G 9G11
   2801218.251 9 -11667156.850 8  16466866.761    16466863.462
     -1092.192        -864.313
   -491756.750 9  -5007195.000 8  16854597.203    16854591.259
     -1336.438       -1039.187
 -13836174.078 9 -17646627.319 8  17113816.926    17113813.383
      2192.980        1712.854
 -12419432.067 9 -16733443.277 9  17207773.379    17207768.075
      1558.500        1224.768
 89  5 21 23 54 29.0800000  0  4G 6G 8G 9G11
   2834591.826 9 -11641151.491 8  16473217.988    16473214.485
     -1124.081        -872.074
   -451391.767 9  -4975741.785 8  16862277.926    16862274.000
     -1369.843       -1053.926
 -13902058.820 9 -17697966.037 9  17101279.423    17101274.972
      2179.248        1705.690
 -12465808.354 9 -16769580.607 8  17198947.360    17198942.830
      1539.091        1199.944
 89  5 21 23 54 59.0800000  0  4G 6G 8G 9G11
   2868544.193 8 -11614695.112 8  16479678.795    16479673.919
     -1137.422        -885.955
   -410496.877 8  -4943875.644 8  16870059.718    16870056.694
     -1368.798       -1058.307
 -13967493.412 9 -17748953.988 8  17088828.330    17088823.520
      2184.065        1710.220
 -12511704.453 9 -16805343.783 8  17190213.947    17190208.459
      1528.660        1190.356
 89  5 21 23 55 29.0800000  0  4G 6G 8G 9G11
   2903075.381 9 -11587787.714 8  16486250.123    16486245.906
     -1167.821        -907.815
   -369074.060 9  -4911598.158 8  16877941.652    16877938.722
     -1385.568       -1074.525
 -14032475.113 9 -17799589.039 9  17076462.530    17076458.055
      2161.792        1683.880
 -12557120.184 9 -16840732.637 8  17181572.036    17181565.781
      1518.892        1166.439
 89  5 21 23 55 59.0800000  0  4G 6G 8G 9G11
   2938185.100 9 -11560429.516 8  16492931.261    16492927.013
     -1190.484        -917.329
   -327125.848 8  -4878911.260 9  16885925.724    16885920.206
     -1408.279       -1109.428
 -14097001.675 9 -17849869.445 9  17064182.881    17064178.697
      2154.456        1671.831
 -12602055.311 8 -16875746.994 7  17173019.826    17173014.852
      1504.291        1173.517
 89  5 21 23 56 29.0800000  0  4G 6G 8G 9G11
   2973873.242 9 -11532620.598 8  16499722.611    16499718.752
     -1194.535        -930.409
   -284654.752 9  -4845816.927 8  16894006.920    16894002.588
     -1437.944       -1116.033
 -14161070.266 9 -17899792.986 9  17051990.695    17051986.237
      2126.809        1659.969
 -12646509.330 9 -16910386.458 8  17164560.847    17164556.466
      1467.999        1148.488
 89  5 21 23 56 59.0800000  0  4G 6G 8G 9G11
   3010139.730 9 -11504361.018 8  16506624.854    16506619.391
     -1224.454        -950.318
   -241663.098 9  -4812316.966 8  16902188.552    16902182.747
     -1449.244       -1135.973
 -14224678.121 9 -17949357.514 9  17039887.478    17039882.679
      2099.552        1653.824
 -12690481.944 9 -16944650.818 7  17156192.782    17156188.214
      1444.036        1143.920
 89  5 21 23 57 29.0800000  0  4G 6G 8G 9G11
   3046984.757 8 -11475650.625 9  16513635.989    16513631.211
     -1254.629        -963.360
   -198153.103 9  -4778413.095 8  16910469.107    16910463.843
     -1459.770       -1127.696
 -14287822.215 9 -17998560.663 8  17027871.037    17027866.604
      2102.575        1638.009
 -12733972.606 9 -16978539.624 8  17147917.024    17147912.022
      1447.497        1126.000
 89  5 21 23 57 59.0800000  0  4G 6G 8G 9G11
   3084407.966 8 -11446489.685 8  16520755.510    16520752.167
     -1262.819        -986.538
   -154127.352 9  -4744107.333 8  16918845.593    16918841.434
     -1477.776       -1152.147
 -14350500.242 9 -18047400.649 8  17015942.578    17015938.880
      2095.007        1624.420
 -12776981.272 8 -17012052.857 8  17139732.697    17139727.117
      1445.312        1109.782
 89  5 21 23 58 29.0800000  0  4G 6G 8G 9G11
   3122409.246 8 -11416878.324 8  16527988.149    16527984.262
     -1260.658        -995.703
   -109588.492 9  -4709401.750 8  16927321.331    16927316.672
     -1492.417       -1172.392
 -14412709.365 9 -18095875.251 9  17004105.945    17004100.783
      2076.889        1617.193
 -12819507.383 8 -17045190.045 7  17131639.923    17131634.696
      1399.747        1108.210
 89  5 21 23 58 59.0800000  0  4G 6G 8G 9G11
   3160988.547 8 -11386816.545 8  16535328.770    16535325.467
     -1293.632       -1005.502
    -64538.813 8  -4674298.122 9  16935893.797    16935888.555
     -1518.062       -1174.374
 -14474446.774 9 -18143982.294 9  16992357.472    16992352.835
      2052.464        1596.284
 -12861550.699 9 -17077951.050 8  17123639.469    17123633.999
      1397.123        1084.529
 89  5 21 23 59 29.0800000  0  4G 6G 8G 9G11
   3200145.276 8 -11356304.838 8  16542780.773    16542775.970
     -1312.946       -1030.830
    -18980.704 9  -4638798.317 8  16944563.524    16944559.479
     -1524.163       -1198.366
 -14535710.039 8 -18191719.863 8  16980698.908    16980694.600
      2027.975        1590.138
 -12903111.382 9 -17110335.990 8  17115731.161    17115725.599
      1379.755        1086.331
 89  5 21 23 59 59.0800000  0  4G 6G 8G 9G11
   3239879.800 9 -11325342.887 9  16550343.472    16550337.798
     -1316.813       -1045.270
     27083.721 9  -4602903.981 9  16953329.214    16953324.271
     -1548.740       -1192.382
 -14596496.055 9 -18239085.560 8  16969131.248    16969127.582
      2022.751        1569.279
 -12944188.490 9 -17142344.098 7  17107913.443    17107909.117
      1373.527        1088.792
 89  5 22  0  0 29.0800000  0  4G 6G 8G 9G11
   3280191.705 8 -11293931.048 9  16558013.948    16558008.415
     -1347.363       -1056.834
     73651.573 9  -4566617.369 8  16962190.776    16962185.637
     -1563.101       -1225.787
 -14656802.564 8 -18286077.616 8  16957655.311    16957652.585
      2025.853        1581.116
 -12984781.832 9 -17173975.253 8  17100189.144    17100184.438
      1351.334        1057.306
 89  5 22  0  0 59.0800000  0  4G 6G 8G 9G11
   3321080.483 9 -11262069.695 8  16565794.089    16565790.527
     -1378.926       -1060.712
    120720.594 9  -4529940.215 8  16971146.770    16971144.018
     -1579.983       -1228.005
 -14716626.640 8 -18332693.757 9  16946272.720    16946267.799
      1996.197        1539.036
 -13024891.736 9 -17205229.710 8  17092556.571    17092551.511
      1327.491        1025.430
 89  5 22  0  1 29.0800000  0  4G 6G 8G 9G11
   3362546.050 8 -11229758.883 8  16573685.353    16573680.037
     -1381.182       -1093.390
    168288.183 9  -4492874.601 8  16980200.452    16980194.852
     -1592.192       -1236.717
 -14775965.717 9 -18378931.966 9  16934980.129    16934975.825
      1972.904        1535.513
 -13064517.837 8 -17236107.173 8  17085015.072    17085010.068
      1308.018        1030.165
 89  5 22  0  1 59.0800000  0  4G 6G 8G 9G11
   3404588.247 8 -11196998.757 8  16581685.771    16581680.810
     -1414.691       -1105.569
    216352.078 9  -4455422.231 9  16989345.890    16989341.409
     -1610.828       -1258.969
 -14834816.740 9 -18424789.888 9  16923780.871    16923777.164
      1946.014        1523.670
 -13103659.738 9 -17266607.335 8  17077567.437    17077562.257
      1300.530        1005.359
 89  5 22  0  2 29.0800000  0  4G 6G 8G 9G11
   3447206.454 9 -11163789.785 8  16589796.286    16589791.525
     -1421.453       -1108.831
    264909.617 9  -4417585.204 8  16998586.804    16998581.786
     -1627.056       -1273.080
 -14893177.516 9 -18470265.781 8  16912674.889    16912671.565
      1928.048        1506.930
 -13142317.453 9 -17296730.220 8  17070210.425    17070205.653
      1268.545         996.300
 89  5 22  0  2 59.0800000  0  4G 6G13G 9G11
   3490400.210 8 -11130132.336 8  16598014.331    16598010.193
     -1441.684       -1124.477
 -33621459.097 9  42613635.884 6  19689976.488    19689963.801
      3543.389        2716.455
 -14951045.363 9 -18515357.590 8  16901663.284    16901658.453
      1935.560        1495.882
 -13180491.116 9 -17326475.904 8  17062947.027    17062942.234
      1268.648         988.209
 89  5 22  0  3 29.0800000  0  4G 6G13G 9G11
   3534169.333 8 -11096026.553 8  16606344.623    16606339.151
     -1463.366       -1148.885
 -33726897.585 9  42531476.655 8  19669909.455    19669900.198
      3512.664        2729.448
 -15008417.617 9 -18560063.227 7  16890744.899    16890741.259
      1908.846        1479.235
 -13218180.383 9 -17355844.155 8  17055775.184    17055771.313
      1264.948         978.292
 89  5 22  0  3 59.0800000  0  4G 6G13G 9G11
   3578514.060 9 -11061472.239 7  16614782.275    16614778.185
     -1481.627       -1167.135
 -33832100.339 4  42449500.596 5  19649887.809    19649878.842
      3484.778        2734.419
 -15065291.246 9 -18604380.314 7  16879922.678    16879919.110
      1891.868        1472.406
 -13255384.276 9 -17384834.184 7  17048695.125    17048691.358
      1233.410         960.135
 89  5 22  0  4 29.0800000  0  4G 6G13G 9G11
   3623433.826 5 -11026469.841 4  16623330.101    16623326.750
     -1529.466       -1165.917
 -33937065.671 5  42367709.549 3  19629914.933    19629908.030
      3475.918        2703.425
 -15121663.463 8 -18648306.708 7  16869194.544    16869191.699
      1896.366        1466.584
 -13292103.051 9 -17413446.196 8  17041707.566    17041703.106
      1227.708         964.765
 89  5 22  0  4 59.0800000  0  4G 6G13G 9G11
   3668927.801 6 -10991020.025 5  16631988.170    16631982.579
     -1516.611       -1178.780
 -34041792.203 5  42286104.581 3  19609984.980    19609977.539
      3475.623        2700.417
 -15177532.058 9 -18691840.664 7  16858563.060    16858559.981
      1845.457        1435.701
 -13328336.937 9 -17441680.397 8  17034813.989    17034807.379
      1207.780         935.262
 89  5 22  0  5 29.0800000  0  4G 6G13G 9G11
   3714995.410 8 -10955123.211 7  16640753.640    16640748.439
     -1548.971       -1200.310
 -34146277.954 8  42204687.228 8  19590103.195    19590094.470
      3468.917        2705.177
 -15232894.613 9 -18734980.313 8  16848029.278    16848024.812
      1839.150        1433.837
 -13364086.008 9 -17469536.791 8  17028010.195    17028004.900
      1177.270         919.186
 89  5 22  0  5 59.0800000  0  4G 6G13G 9G11
   3761636.354 9 -10918779.637 7  16649628.243    16649624.039
     -1558.341       -1215.783
 -34250521.261 7  42123458.814 8  19570266.784    19570257.752
      3457.322        2720.513
 -15287748.320 9 -18777723.448 8  16837591.406    16837584.970
      1829.636        1411.430
 -13399350.107 9 -17497015.294 8  17021299.706    17021295.155
      1154.599         900.234
 89  5 22  0  6 29.0800000  0  4G 6G13G 9G11
   3808850.096 9 -10881989.749 8  16658613.859    16658609.620
     -1561.395       -1223.904
 -34354520.152 7  42042420.841 7  19550476.680    19550467.651
      3464.268        2692.694
 -15342090.657 9 -18820068.118 9  16827250.350    16827245.721
      1818.472        1392.043
 -13434129.118 9 -17524115.823 8  17014680.859    17014676.963
      1160.189         900.961
 89  5 22  0  6 59.0800000  0  4G 6G13G 9G11
   3856635.948 9 -10844754.042 8  16667706.854    16667702.998
     -1591.682       -1234.145
 -34458273.729 9  41961573.990 7  19530730.798    19530723.253
      3466.963        2683.323
 -15395919.069 9 -18862012.321 9  16817006.873    16817001.012
      1765.371        1396.088
 -13468423.534 8 -17550838.728 7  17008154.163    17008150.573
      1140.516         891.436
 89  5 22  0  7 29.0800000  0  4G 6G13G 9G11
   3904993.650 9 -10807072.754 8  16676909.339    16676904.867
     -1627.694       -1261.317
 -34561779.890 9  41880919.950 7  19511034.847    19511027.663
      3454.595        2684.088
 -15449230.943 9 -18903554.019 8  16806861.225    16806856.658
      1764.685        1379.236
 -13502232.746 9 -17577183.563 9  17001721.324    17001716.511
      1113.491         881.419
 89  5 22  0  7 59.0800000  0  4G 6G13G 9G11
   3953922.633 9 -10768946.291 8  16686220.201    16686215.623
     -1635.198       -1273.714
 -34665036.238 9  41800460.545 7  19491385.843    19491378.033
      3452.131        2672.810
 -15502023.588 9 -18944691.135 8  16796815.722    16796811.442
      1763.082        1372.905
 -13535556.764 9 -17603150.329 7  16995378.546    16995374.451
      1097.838         883.140
 89  5 22  0  8 29.0800000  0  4G 6G13G 9G11
   4003422.167 9 -10730375.246 8  16695638.869    16695635.208
     -1665.843       -1308.368
 -34768041.617 9  41720196.717 7  19471785.034    19471777.389
      3440.369        2681.093
 -15554294.835 9 -18985421.951 8  16786868.268    16786863.896
      1720.140        1366.163
 -13568395.819 9 -17628739.184 7  16989130.040    16989127.023
      1088.843         852.363
 89  5 22  0  8 59.0800000  0  4G 6G13G 9G11
   4053491.275 9 -10691360.394 8  16705168.229    16705163.157
     -1676.991       -1301.738
 -34870794.016 9  41640130.006 7  19452231.750    19452223.362
      3419.882        2665.098
 -15606042.006 9 -19025744.406 8  16777022.409    16777016.173
      1728.458        1335.491
 -13600750.171 9 -17653950.364 6  16982973.564    16982970.114
      1077.543         839.855
 89  5 22  0  9 29.0800000  0  4G 6G13G 9G11
   4104129.813 9 -10651901.822 7  16714804.132    16714799.932
     -1686.935       -1317.403
 -34973292.141 9  41560261.419 7  19432726.430    19432718.660
      3417.674        2657.300
 -15657262.570 9 -19065656.505 9  16767274.651    16767269.664
      1691.712        1335.373
 -13632619.748 8 -17678783.790 7  16976908.912    16976904.409
      1037.791         831.864
 89  5 22  0  9 59.0800000  0  4G 6G13G 9G11
   4155336.762 9 -10612000.335 8  16724548.600    16724543.734
     -1722.445       -1323.387
 -35075534.662 9  41480592.013 7  19413269.643    19413263.426
      3412.115        2648.613
 -15707954.128 8 -19105156.394 9  16757628.963    16757623.249
      1679.136        1319.951
 -13664004.820 9 -17703239.676 7  16970934.626    16970931.639
      1029.394         804.107
 89  5 22  0 10 29.0800000  0  4G 6G13G 9G11
   4207111.352 9 -10571656.508 8  16734398.988    16734396.740
     -1739.295       -1342.998
 -35177519.524 9  41401123.367 7  19393862.636    19393855.780
      3384.221        2658.499
 -15758114.520 9 -19144242.388 8  16748083.371    16748078.796
      1667.262        1282.270
 -13694905.660 9 -17727318.243 7  16965055.448    16965052.989
      1018.596         810.806
 89  5 22  0 10 59.0800000  0  4G 6G13G 9G11
   4259452.445 9 -10530871.282 8  16744361.718    16744356.074
     -1758.003       -1355.158
 -35279245.863 9  41321856.186 7  19374505.958    19374497.854
      3393.910        2629.170
 -15807741.232 8 -19182912.523 9  16738639.649    16738634.683
      1648.172        1286.092
 -13725322.386 9 -17751019.603 7  16959267.087    16959263.700
      1017.185         799.186
 89  5 22  0 11 29.0800000  0  4G 6G13G 9G11
   4312359.982 9 -10489644.647 7  16754429.070    16754425.251
     -1757.205       -1369.381
 -35380710.653 9  41242792.828 8  19355196.818    19355188.466
      3381.614        2633.116
 -15856831.405 8 -19221164.571 8  16729296.429    16729293.451
      1626.888        1269.899
 -13755254.911 9 -17774343.644 7  16953572.738    16953568.509
       988.445         778.494
 89  5 22  0 11 59.0800000  0  4G 6G13G 9G11
   4365833.297 8 -10447977.157 7  16764603.004    16764600.637
     -1792.667       -1382.151
 -35481912.726 9  41163934.190 8  19335939.008    19335930.574
      3380.784        2619.166
 -15905382.665 9 -19258996.706 8  16720058.285    16720054.302
      1604.744        1257.900
 -13784703.251 9 -17797290.397 7  16947968.333    16947963.516
       971.213         764.501
 89  5 22  0 12 29.0800000  0  4G 6G13G 9G11
   4419871.637 8 -10405869.388 7  16774886.743    16774883.261
     -1795.426       -1412.747
 -35582850.004 9  41085281.867 7  19316731.110    19316723.352
      3373.424        2629.823
 -15953392.248 9 -19296406.743 8  16710923.022    16710918.269
      1593.133        1239.650
 -13813667.615 8 -17819860.023 7  16942456.276    16942452.202
       964.132         757.560
 89  5 22  0 12 59.0800000  0  4G 6G13G 9G11
   4474474.149 8 -10363322.003 8  16785277.597    16785274.550
     -1822.045       -1426.909
 -35683521.394 9  41006836.714 8  19297574.540    19297565.221
      3353.903        2613.586
 -16000857.941 9 -19333392.981 8  16701890.547    16701886.492
      1565.757        1230.752
 -13842148.104 8 -17842052.608 7  16937036.084    16937031.250
       949.315         728.641
 89  5 22  0 13 29.0800000  0  4G 6G13G 9G11
   4529639.749 9 -10320335.853 7  16795776.358    16795770.813
     -1848.376       -1435.477
 -35783925.468 9  40928599.865 8  19278467.931    19278460.098
      3341.463        2614.064
 -16047777.534 9 -19369953.687 8  16692963.015    16692958.232
      1547.017        1212.813
 -13870145.195 9 -17863868.528 7  16931709.080    16931704.893
       920.233         708.303
 89  5 22  0 13 59.0800000  0  4G 6G13G 9G11
   4585368.055 9 -10276911.234 8  16806380.556    16806375.498
     -1871.573       -1452.298
 -35884059.927 9  40850573.091 9  19259412.739    19259404.189
      3325.849        2603.203
 -16094148.101 8 -19406086.577 8  16684136.046    16684133.364
      1523.884        1202.529
 -13897658.538 8 -17885307.492 7  16926473.721    16926468.178
       912.809         689.078
 89  5 22  0 14 29.0800000  0  4G 6G13G 9G11
   4641658.059 9 -10233048.927 8  16817092.791    16817087.074
     -1883.567       -1468.684
 -35983923.544 8  40772757.374 8  19240408.488    19240401.285
      3330.594        2600.717
 -16139967.600 9 -19441790.070 9  16675418.914    16675414.258
      1512.528        1195.743
 -13924688.711 9 -17906369.964 8  16921331.301    16921324.471
       908.821         705.706
 89  5 22  0 14 59.0800000  0  4G 6G13G 9G11
   4698508.725 9 -10188749.736 8  16827910.335    16827906.665
     -1896.310       -1471.306
 -36083514.825 9  40695153.838 8  19221457.310    19221450.630
      3320.275        2569.710
 -16185233.580 9 -19477062.251 8  16666804.446    16666801.254
      1500.822        1168.608
 -13951235.872 9 -17927056.066 7  16916278.962    16916273.286
       866.015         680.198
 89  5 22  0 15 29.0800000  0  4G 6G13G 9G11
   4755919.199 9 -10144014.326 8  16838835.968    16838830.818
     -1921.581       -1489.624
 -36182831.818 9  40617764.062 8  19202558.877    19202549.446
      3319.972        2582.126
 -16229943.855 9 -19511901.409 9  16658295.753    16658292.976
      1482.592        1151.936
 -13977300.274 8 -17947365.973 7  16911318.800    16911313.540
       861.358         662.831
 89  5 22  0 15 59.0800000  0  4G 6G13G 9G11
   4813888.516 9 -10098843.456 8  16849866.930    16849863.351
     -1945.823       -1505.364
 -36281873.197 9  40540589.043 7  19183711.160    19183702.963
      3290.730        2566.920
 -16274096.002 9 -19546305.685 8  16649895.717    16649891.009
      1458.693        1133.643
 -14002882.471 8 -17967300.148 7  16906450.962    16906444.581
       846.374         647.327
 89  5 22  0 16 29.0800000  0  4G 6G13G 9G11
   4872415.781 9 -10053237.842 8  16861004.725    16860999.749
     -1960.456       -1518.953
 -36380637.315 8  40463630.061 7  19164916.011    19164909.440
      3295.666        2566.653
 -16317687.448 9 -19580273.034 8  16641598.520    16641596.027
      1444.188        1134.929
 -14027982.657 8 -17986858.739 7  16901674.014    16901668.240
       855.473         627.673
 89  5 22  0 16 59.0800000  0  4G 6G13G 9G11
   4931499.941 9 -10007198.287 8  16872248.818    16872243.805
     -1978.701       -1539.005
 -36479122.306 9  40386888.593 8  19146174.356    19146167.012
      3287.046        2541.195
 -16360716.156 9 -19613801.899 7  16633411.643    16633408.094
      1417.466        1101.182
 -14052601.300 8 -18006042.092 8  16896990.009    16896984.559
       823.663         630.252
 89  5 22  0 17 29.0800000  0  4G 6G13G 9G11
   4991140.150 9  -9960725.421 8  16883596.401    16883592.505
     -1997.441       -1562.027
 -36577326.750 9  40310365.719 7  19127487.034    19127480.374
      3257.572        2548.845
 -16403179.732 9 -19646890.399 8  16625330.320    16625326.974
      1398.303        1119.917
 -14076738.416 8 -18024850.243 7  16892394.183    16892390.673
       809.876         613.269
 89  5 22  0 17 59.0800000  0  4G 6G13G 9G11
   5051335.429 9  -9913820.033 8  16895051.049    16895047.752
     -2015.917       -1567.179
 -36675248.737 9  40234062.935 8  19108852.300    19108845.061
      3252.620        2545.234
 -16445075.751 9 -19679536.630 8  16617358.290    16617353.499
      1391.581        1074.562
 -14100394.527 8 -18043283.552 7  16887893.830    16887889.901
       784.836         600.966
 89  5 22  0 18 29.0800000  0  4G 6G13G 9G11
   5112084.623 9  -9866483.039 9  16906611.977    16906607.014
     -2036.483       -1587.056
 -36772887.692 8  40157980.695 9  19090273.632    19090265.781
      3250.164        2531.023
 -16486402.107 8 -19711738.983 9  16609493.529    16609490.050
      1375.576        1074.891
 -14123569.881 8 -18061342.272 7  16883484.653    16883479.458
       738.202         605.334
 89  5 22  0 18 59.0800000  0  4G 6G13G 9G11
   5173386.544 9  -9818715.347 9  16918276.229    16918273.417
     -2051.730       -1602.442
 -36870241.666 9  40082120.517 8  19071747.232    19071740.124
      3240.515        2525.984
 -16527156.615 9 -19743495.729 8  16601739.580    16601734.955
      1359.899        1063.098
 -14146264.990 8 -18079026.781 7  16879164.719    16879160.425
       757.221         603.849
 89  5 22  0 19 29.0800000  0  4G 6G13G 9G11
   5235240.195 8  -9770517.757 7  16930047.891    16930043.982
     -2072.982       -1612.023
 -36967309.223 8  40006483.536 8  19053275.914    19053269.000
      3246.719        2524.921
 -16567336.993 9 -19774805.096 7  16594092.977    16594088.383
      1336.335        1039.156
 -14168480.459 8 -18096337.538 8  16874938.998    16874933.494
       731.647         560.185
 89  5 22  0 19 59.0800000  0  4G 6G13G 9G11
   5297644.356 9  -9721891.183 8  16941922.657    16941918.809
     -2089.218       -1628.254
 -37064089.230 9  39931070.603 7  19034858.464    19034853.059
      3225.914        2497.991
 -16606941.080 8 -19805665.424 8  16586555.665    16586552.730
      1315.912        1020.844
 -14190216.263 8 -18113274.533 7  16870803.565    16870797.301
       675.763         545.987
 89  5 22  0 20 29.0800000  0  4G 6G13G 9G11
   5360598.164 9  -9672836.315 8  16953902.256    16953898.574
     -2100.637       -1642.974
 -37160579.199 9  39855883.657 8  19016498.194    19016491.259
      3219.551        2506.734
 -16645966.503 9 -19836074.830 7  16579129.669    16579126.606
      1286.910         999.897
 -14211473.107 8 -18129838.304 7  16866756.923    16866750.878
       711.544         550.168
 89  5 22  0 20 59.0800000  0  4G 6G13G 9G11
   5424100.206 8  -9623354.254 8  16965986.622    16965981.113
     -2113.635       -1656.408
 -37256778.244 9  39780923.402 7  18998191.790    18998184.759
      3203.371        2475.814
 -16684411.152 9 -19866031.689 9  16571813.798    16571810.723
      1268.489         980.958
 -14232251.649 8 -18146029.374 7  16862804.013    16862798.323
       705.459         525.487
 89  5 22  0 21 29.0800000  0  4G 6G13G 9G11
   5488149.526 9  -9573445.742 8  16978175.624    16978170.081
     -2138.356       -1674.491
 -37352684.943 9  39706190.971 7  18979939.925    18979934.321
      3200.556        2490.273
 -16722272.776 8 -19895534.243 8  16564609.377    16564604.965
      1253.991         989.116
 -14252552.024 8 -18161847.862 7  16858940.431    16858935.750
       663.602         522.579
 89  5 22  0 21 59.0800000  0  4G 6G13G 9G11
   5552744.843 9  -9523111.790 8  16990467.641    16990462.793
     -2150.054       -1690.075
 -37448297.728 8  39631687.556 8  18961745.970    18961739.495
      3185.995        2494.182
 -16759549.449 8 -19924580.992 8  16557515.414    16557511.677
      1228.601         963.621
 -14272374.749 7 -18177294.137 7  16855167.588    16855162.964
       657.278         516.645
 89  5 22  0 22 29.0800000  0  4G 6G13G 9G11
   5617885.295 9  -9472353.051 8  17002864.059    17002858.752
     -2193.921       -1708.791
 -37543614.556 9  39557414.758 7  18943608.095    18943601.045
      3178.427        2478.952
 -16796238.294 9 -19953169.699 7  16550533.589    16550530.826
      1206.121         938.685
 -14291719.838 9 -18192368.252 8  16851488.917    16851482.780
       639.735         501.844
 89  5 22  0 22 59.0800000  0  4G 6G13G 9G11
   5683569.508 9  -9421170.605 8  17015362.495    17015357.829
     -2203.139       -1717.291
 -37638634.012 8  39483373.688 8  18925525.477    18925518.612
      3159.791        2463.964
 -16832337.768 8 -19981299.160 8  16543666.334    16543659.531
      1186.361         939.549
 -14310588.171 9 -18207070.839 8  16847896.665    16847892.556
       608.411         489.093
 89  5 22  0 23 29.0800000  0  4G 6G13G 9G11
   5749796.202 9  -9369565.443 8  17027965.445    17027960.266
     -2205.739       -1718.708
 -37733354.783 9  39409565.367 8  18907502.701    18907495.064
      3154.336        2459.807
 -16867845.512 9 -20008967.512 9  16536907.080    16536903.857
      1167.829         916.788
 -14328980.341 8 -18221402.399 7  16844396.908    16844390.522
       613.180         467.121
 89  5 22  0 23 59.0800000  0  4G 6G13G 9G11
   5816564.160 9  -9317538.531 8  17040669.765    17040665.755
     -2235.419       -1732.925
 -37827775.195 9  39335991.061 8  18889534.639    18889527.247
      3150.166        2444.186
 -16902759.566 9 -20036173.264 8  16530263.737    16530259.889
      1166.242         904.920
 -14346896.650 8 -18235363.167 7  16840988.674    16840982.269
       586.562         449.331
 89  5 22  0 24 29.0800000  0  4G 6G13G 9G11
   5883872.106 9  -9265090.845 9  17053478.763    17053473.788
     -2236.313       -1755.537
 -37921894.211 9  39262651.624 8  18871625.232    18871616.607
      3136.019        2422.170
 -16937077.862 8 -20062914.785 8  16523734.708    16523729.614
      1143.132         889.907
 -14364337.669 8 -18248953.559 8  16837669.087    16837663.941
       592.064         445.261
 89  5 22  0 24 59.0800000  0  4G 6G13G 9G11
   5951718.774 9  -9212223.370 9  17066389.986    17066385.083
     -2256.958       -1771.252
 -38015710.372 9  39189548.209 8  18853770.443    18853764.213
      3108.548        2431.907
 -16970798.187 9 -20089190.363 9  16517316.750    16517312.664
      1105.812         886.291
 -14381304.022 9 -18262174.115 7  16834440.488    16834434.048
       570.055         429.348
 89  5 22  0 25 29.0800000  0  4G 6G13G 9G11
   6020102.732 8  -9158937.240 9  17079402.549    17079397.734
     -2299.302       -1784.381
 -38109222.326 9  39116681.810 8  18835976.255    18835968.447
      3139.751        2445.609
 -17003918.610 8 -20114998.464 8  16511014.161    16511011.081
      1092.583         855.545
 -14397796.492 8 -18275025.383 7  16831301.477    16831295.482
       548.460         421.251
 89  5 22  0 25 59.0800000  0  4G 6G13G 9G11
   6089022.577 9  -9105233.536 8  17092518.272    17092513.370
     -2320.633       -1802.451
 -38202428.981 9  39044053.306 8  18818239.774    18818232.350
      3112.950        2427.788
 -17036437.099 9 -20140337.539 8  16504826.539    16504821.719
      1084.983         834.685
 -14413815.695 8 -18287507.884 8  16828254.001    16828248.170
       532.288         415.485
 89  5 22  0 26 29.0800000  0  4G 6G13G 9G11
   6158477.123 9  -9051113.180 8  17105735.159    17105729.185
     -2327.148       -1820.769
 -38295328.267 8  38971664.328 8  18800561.098    18800553.984
      3094.385        2406.829
 -17068351.668 9 -20165206.025 9  16498753.063    16498748.140
      1059.880         824.227
 -14429361.944 8 -18299621.829 8  16825295.825    16825288.971
       511.810         386.615
 89  5 22  0 26 59.0800000  0  4G 6G13G 9G11
   6228464.874 9  -8996577.332 9  17119052.800    17119047.125
     -2311.104       -1827.629
 -38387919.134 9  38899515.652 7  18782941.731    18782935.694
      3095.661        2420.865
 -17099660.367 8 -20189602.394 8  16492794.116    16492790.720
      1025.789         809.824
 -14444435.996 8 -18311367.843 9  16822426.999    16822421.151
       486.316         390.654
 89  5 22  0 27 29.0800000  0  4G 6G13G 9G11
   6298984.301 9  -8941627.199 8  17132472.959    17132467.437
     -2349.405       -1845.332
 -38480200.210 9  38827608.393 8  18765380.872    18765374.788
      3078.269        2398.372
 -17130361.495 9 -20213525.338 9  16486951.542    16486948.465
      1016.459         785.168
 -14459038.561 8 -18322746.459 8  16819648.396    16819642.082
       496.914         376.661
 89  5 22  0 27 59.0800000  0  4G 6G13G 9G11
   6370034.077 9  -8886263.807 9  17145992.999    17145988.730
     -2362.020       -1848.247
 -38572170.491 9  38755943.300 8  18747880.313    18747872.611
      3066.100        2388.131
 -17160452.836 9 -20236973.126 8  16481226.885    16481222.236
       998.708         770.304
 -14473170.112 8 -18333758.053 8  16816957.683    16816954.501
       457.800         382.316
 89  5 22  0 28 29.0800000  0  4G 6G13G 9G11
   6441612.901 9  -8830488.163 8  17159614.559    17159609.096
     -2413.702       -1863.079
 -38663828.301 8  38684521.695 8  18730437.238    18730430.904
      3062.575        2363.431
 -17189932.254 9 -20259944.103 8  16475617.902    16475612.937
       966.420         751.980
 -14486831.076 9 -18344402.967 7  16814359.311    16814353.171
       452.074         359.157
 89  5 22  0 28 59.0800000  0  4G 6G13G 9G11
   6513719.117 9  -8774301.574 9  17173335.504    17173330.155
     -2401.541       -1886.635
 -38755171.811 8  38613344.984 7  18713056.733    18713048.036
      3040.120        2372.199
 -17218798.221 9 -20282437.047 8  16470123.570    16470119.350
       970.240         752.427
 -14500022.803 8 -18354682.224 7  16811847.469    16811843.246
       449.929         346.965
 89  5 22  0 29 29.0800000  0  4G 6G13G 9G11
   6586351.318 9  -8717705.135 9  17187156.880    17187151.518
     -2429.404       -1889.842
 -38846199.874 8  38542414.089 9  18695733.555    18695726.094
      3038.995        2380.700
 -17247048.660 9 -20304450.377 9  16464747.954    16464745.378
       933.438         726.211
 -14512745.713 9 -18364596.193 7  16809427.850    16809421.638
       424.371         326.665
 89  5 22  0 29 59.0800000  0  4G 6G13G 9G11
   6659508.028 9  -8660699.967 8  17201077.496    17201073.869
     -2446.923       -1901.200
 -38936911.674 8  38471729.633 9  18678471.459    18678464.905
      3036.292        2352.912
 -17274681.966 9 -20325982.812 8  16459489.889    16459485.168
       912.761         701.089
 -14525000.504 9 -18374145.392 8  16807094.807    16807089.735
       407.091         335.053
 89  5 22  0 30 29.0800000  0  4G 6G13G 9G11
   6733187.702 9  -8603287.300 9  17215099.251    17215094.199
     -2453.614       -1913.715
 -39027305.436 8  38401292.994 8  18661269.964    18661262.816
      3015.766        2342.715
 -17301695.962 8 -20347032.675 8  16454348.351    16454345.157
       893.862         699.281
 -14536787.801 8 -18383330.299 8  16804852.482    16804846.864
       398.199         299.144
 89  5 22  0 30 59.0800000  0  4G 6G13G 9G11
   6807388.906 9  -8545468.250 9  17229219.064    17229214.139
     -2483.111       -1941.410
 -39117379.937 8  38331105.156 8  18644129.053    18644123.561
      3023.397        2339.583
 -17328088.829 8 -20367598.546 8  16449326.201    16449321.738
       876.111         671.511
 -14548108.092 8 -18392151.319 8  16802698.115    16802692.731
       379.651         292.110
 89  5 22  0 31 29.0800000  0  4G 6G13G 9G11
   6882110.064 9  -8487244.048 8  17243437.956    17243433.444
     -2488.541       -1942.833
 -39207133.354 9  38261167.482 8  18627050.362    18627043.533
      2986.699        2327.789
 -17353858.929 8 -20387679.124 9  16444421.901    16444418.206
       856.191         671.306
 -14558962.189 9 -18400609.062 8  16800632.897    16800627.414
       378.774         282.920
 89  5 22  0 31 59.0800000  0  4G 6G13G 9G11
   6957349.399 9  -8428616.078 8  17257755.877    17257750.931
     -2507.919       -1967.818
 -39296565.204 9  38191480.386 9  18610031.244    18610025.613
      2978.781        2332.953
 -17379004.509 8 -20407273.079 7  16439636.177    16439632.812
       832.738         651.043
 -14569351.251 9 -18408704.448 8  16798655.180    16798651.375
       344.277         270.511
 89  5 22  0 32 29.0800000  0  4G 6G13G 9G11
   7033105.474 9  -8369585.462 8  17272171.928    17272167.002
     -2529.817       -1976.723
 -39385674.146 9  38122044.907 9  18593074.433    18593068.238
      2970.057        2326.198
 -17403523.844 8 -20426379.051 8  16434971.477    16434968.300
       812.587         630.693
 -14579275.936 8 -18416437.973 8  16796768.020    16796762.078
       325.864         242.779
 89  5 22  0 32 59.0800000  0  4G 6G13G 9G11
   7109376.436 9  -8310153.645 8  17286685.980    17286680.981
     -2556.276       -1967.893
 -39474458.917 9  38052862.024 9  18576179.124    18576173.745
      2962.465        2315.250
 -17427415.346 9 -20444995.796 7  16430424.749    16430420.894
       776.702         622.982
 -14588737.119 9 -18423810.331 9  16794967.618    16794960.490
       305.992         244.009
 89  5 22  0 33 29.0800000  0  4G 6G13G 9G11
   7186160.786 8  -8250321.769 8  17301297.645    17301291.649
     -2570.629       -1987.336
 -39562917.899 9  37983932.999 8  18559345.219    18559339.483
      2949.180        2307.135
 -17450677.160 9 -20463121.877 8  16425997.965    16425994.145
       767.077         594.448
 -14597735.574 9 -18430822.114 8  16793255.019    16793248.635
       312.387         250.297
 89  5 22  0 33 59.0800000  0  4G 6G13G 9G11
   7263456.844 9  -8190091.162 8  17316006.147    17316000.833
     -2593.811       -1997.669
 -39651049.911 9  37915258.730 8  18542576.340    18542569.307
      2928.598        2291.544
 -17473307.574 8 -20480755.963 7  16421691.933    16421688.076
       736.280         592.093
 -14606271.755 8 -18437473.688 9  16791630.062    16791626.512
       266.200         222.311
 89  5 22  0 34 29.0800000  0  4G 6G13G 9G11
   7341263.200 9  -8129462.910 8  17330812.106    17330807.317
     -2610.565       -2016.410
 -39738853.820 8  37846840.139 8  18525866.138    18525859.941
      2932.139        2278.483
 -17495304.840 9 -20497896.681 7  16417507.050    16417502.360
       732.086         556.301
 -14614346.411 9 -18443765.650 7  16790094.745    16790088.011
       264.294         207.199
 89  5 22  0 34 59.0800000  0  4G 6G13G 9G11
   7419577.802 8  -8068438.618 8  17345715.581    17345709.185
     -2605.198       -2046.995
 -39826328.396 9  37778678.175 9  18509220.611    18509213.543
      2909.843        2274.052
 -17516667.444 9 -20514542.865 9  16413440.582    16413437.292
       707.054         544.688
 -14621960.812 9 -18449698.942 8  16788645.120    16788638.700
       254.605         188.688
 89  5 22  0 35 29.0800000  0  4G 6G13G 9G11
   7498399.078 9  -8007019.512 8  17360713.924    17360710.589
     -2633.316       -2053.842
 -39913472.833 9  37710773.498 8  18492637.168    18492630.012
      2910.098        2264.440
 -17537393.901 8 -20530693.348 8  16409495.972    16409492.306
       672.932         532.049
 -14629115.938 8 -18455274.372 8  16787283.976    16787277.962
       230.132         169.611
 89  5 22  0 35 59.0800000  0  4G 6G13G 9G11
   7577725.238 9  -7945207.001 7  17375811.688    17375805.190
     -2644.982       -2062.728
 -40000285.752 9  37643127.110 8  18476117.839    18476111.007
      2900.417        2246.202
 -17557482.566 8 -20546346.845 8  16405673.790    16405669.785
       663.092         507.735
 -14635812.438 9 -18460492.432 9  16786008.318    16786003.846
       220.930         171.911
 89  5 22  0 36 29.0800000  0  4G 6G13G 9G11
   7657554.299 9  -7883002.603 8  17391000.433    17390995.845
     -2663.906       -2073.521
 -40086766.360 9  37575739.681 8  18459661.668    18459654.445
      2878.145        2226.430
 -17576931.954 8 -20561502.219 8  16401973.491    16401968.942
       651.617         496.581
 -14642051.313 9 -18465353.905 8  16784821.866    16784816.616
       197.613         156.494
 89  5 22  0 36 59.0800000  0  4G 6G13G 9G11
   7737884.890 9  -7820407.431 8  17406287.202    17406282.595
     -2693.698       -2098.936
 -40172912.647 9  37508612.735 8  18443268.100    18443260.959
      2870.976        2231.264
 -17595740.301 9 -20576158.057 7  16398393.780    16398389.732
       625.764         474.982
 -14647833.267 8 -18469859.332 8  16783722.203    16783715.494
       199.271         150.989
 89  5 22  0 37 29.0800000  0  4G 6G13G 9G11
   7818715.160 9  -7757422.877 9  17421669.300    17421664.156
     -2708.315       -2106.094
 -40258724.331 9  37441746.565 9  18426938.882    18426931.321
      2858.432        2233.837
 -17613906.150 8 -20590313.260 7  16394937.110    16394932.892
       595.469         447.473
 -14653159.300 9 -18474009.481 8  16782708.573    16782702.626
       176.943         138.027
 89  5 22  0 37 59.0800000  0  4G 6G13G 9G11
   7900043.282 9  -7694050.365 8  17437144.701    17437140.406
     -2721.018       -2122.243
 -40344199.268 8  37375142.785 8  18410672.284    18410665.905
      2836.710        2193.516
 -17631428.049 8 -20603966.684 7  16391601.984    16391598.201
       577.838         460.292
 -14658030.292 8 -18477805.058 8  16781781.447    16781776.014
       158.012         116.279
 89  5 22  0 38 29.0800000  0  4G 6G13G 9G11
   7981867.357 9  -7630291.437 8  17452716.194    17452710.472
     -2730.380       -2127.799
 -40429336.698 9  37308802.006 8  18394471.104    18394465.100
      2831.375        2204.762
 -17648304.634 8 -20617117.266 8  16388390.534    16388386.855
       549.361         428.217
 -14662447.379 9 -18481246.935 8  16780940.033    16780935.337
       134.177         108.729
 89  5 22  0 38 59.0800000  0  4G 6G13G 9G11
   8064185.619 9  -7566147.416 7  17468380.947    17468375.677
     -2760.212       -2143.022
 -40514135.393 9  37242725.145 8  18378336.056    18378328.539
      2832.994        2213.002
 -17664534.291 8 -20629763.745 7  16385302.380    16385299.285
       529.952         420.779
 -14666411.343 8 -18484335.736 9  16780185.747    16780181.175
       130.811          91.442
 89  5 22  0 39 29.0800000  0  4G 6G13G 9G11
   8146996.205 9  -7501619.748 8  17484139.830    17484134.277
     -2773.912       -2150.342
 -40598594.524 8  37176912.851 8  18362261.986    18362256.080
      2814.469        2188.892
 -17680115.636 7 -20641905.052 8  16382336.665    16382332.488
       510.040         390.070
 -14669923.149 9 -18487072.218 8  16779518.420    16779512.579
       109.847          92.672
 89  5 22  0 39 59.0800000  0  4G 6G13G 9G11
   8230297.127 9  -7436710.036 7  17499990.478    17499985.214
     -2775.060       -2162.701
 -40682713.090 8  37111365.964 8  18346255.660    18346250.231
      2812.292        2176.334
 -17695047.253 8 -20653540.068 7  16379496.326    16379490.685
       472.999         373.069
 -14672984.009 9 -18489457.300 9  16778935.182    16778931.373
        85.206          79.835
 89  5 22  0 40 29.0800000  0  4G 6G13G 9G11
   8314086.396 8  -7371419.790 8  17515934.717    17515930.366
     -2811.662       -2191.645
 -40766489.583 9  37046085.640 7  18330313.705    18330306.716
      2800.347        2187.675
 -17709328.025 8 -20664667.936 7  16376777.761    16376773.815
       463.948         350.507
 -14675594.581 9 -18491491.502 8  16778438.593    16778433.430
        90.246          74.367
 89  5 22  0 40 59.0800000  0  4G 6G13G 9G11
   8398362.356 9  -7305750.285 9  17531973.208    17531967.700
     -2819.262       -2195.032
 -40849923.054 8  36981072.612 7  18314435.873    18314431.284
      2777.883        2159.768
 -17722956.212 8 -20675287.287 8  16374184.981    16374181.918
       443.071         343.889
 -14677755.884 8 -18493175.647 9  16778028.096    16778020.419
        76.650          58.621
 89  5 22  0 41 29.0800000  0  4G 6G13G 9G11
   8483123.094 9  -7239703.041 8  17548102.015    17548097.083
     -2834.971       -2208.727
 -40933012.592 8  36916327.570 8  18298625.836    18298619.389
      2766.934        2145.632
 -17735930.825 8 -20685397.380 7  16371714.210    16371712.301
       422.346         341.087
 -14679468.767 8 -18494510.366 8  16777701.385    16777696.007
        48.978          43.577
 89  5 22  0 41 59.0800000  0  4G 6G13G 9G11
   8568366.500 9  -7173279.708 8  17564323.739    17564319.266
     -2849.222       -2199.885
 -41015757.460 9  36851851.113 7  18282877.834    18282873.210
      2750.220        2138.592
 -17748250.521 8 -20694997.142 7  16369370.375    16369367.582
       394.117         312.181
 -14680734.633 9 -18495496.757 7  16777459.853    16777453.967
        37.041          46.293
 89  5 22  0 42 29.0800000  0  4G 6G13G 9G11
   8654090.527 9  -7106481.860 8  17580636.617    17580631.603
     -2871.255       -2244.351
 -41098156.142 9  36787644.406 7  18267198.207    18267193.000
      2735.906        2140.885
 -17759913.990 8 -20704085.559 7  16367152.278    16367148.497
       374.890         296.491
 -14681554.592 8 -18496135.685 8  16777304.930    16777298.519
         7.767          20.586
